GFSFLT1_prec_cloud_003.txt.gz
Cloud_Cover
5 2 0 0 0 0 0 0 0 30 89 25 0 0 0 0 0 4 0 0 0 0 0 0 0 0 0 0 3 4 0 0 0
88 0 0 0 0 0 0 0 0 61 0 29 0 0 0 0 0 0 0 0 0 4 3 5 5 4 2 0 2 100 5 5 1
0 0 0 0 0 1 0 0 0 12 0 5 0 0 0 0 0 0 0 0 0 2 3 3 1 4 5 0 0 5 5 5 5
0 0 0 0 20 0 0 0 0 0 0 0 0 0 0 0 0 0 0 0 0 34 26 8 2 40 89 5 12 5 12 83 12
0 0 8 0 0 0 0 0 0 0 0 0 0 0 0 0 0 0 0 0 5 13 100 100 5 5 5 5 5 6 100 100 100
0 3 2 0 0 0 0 0 0 0 0 0 0 0 0 0 0 0 0 1 12 98 90 19 24 11 5 86 50 7 84 100 100
5 0 0 0 0 0 0 0 0 0 0 2 3 3 3 1 0 0 5 44 99 100 16 5 8 52 27 85 75 95 100 100 100
0 6 1 2 0 0 0 0 0 0 0 4 5 2 0 0 1 5 63 100 66 5 5 10 5 5 5 93 98 100 100 100 100
0 3 9 13 8 13 2 0 0 0 0 0 0 15 22 5 6 36 5 5 5 5 5 5 5 5 5 5 33 95 72 95 99
0 0 0 0 0 0 1 0 0 0 0 2 5 42 4 5 12 21 22 5 6 13 6 6 38 17 8 39 96 100 100 100 74
0 0 0 0 0 0 0 0 0 0 1 5 4 33 38 22 16 5 5 9 5 6 11 5 5 9 23 97 81 100 100 98 100
0 0 0 0 0 0 0 0 0 0 4 5 5 3 18 83 62 62 5 5 5 5 5 5 5 60 75 90 79 99 75 96 88
0 0 0 0 2 4 0 0 0 0 0 0 5 46 81 62 55 8 5 5 5 5 5 6 29 100 11 57 99 95 96 100 97
0 5 5 5 4 0 0 0 0 0 0 1 3 0 4 4 17 6 5 5 3 1 5 6 53 18 74 25 100 52 48 95 100
5 5 1 0 0 0 3 0 0 5 4 0 1 2 2 4 4 5 5 5 3 0 5 26 61 35 89 23 6 8 99 49 63
0 0 0 0 0 5 5 3 4 5 5 5 4 4 5 5 5 5 5 4 0 3 5 49 72 67 97 5 39 11 5 20 13
0 0 0 5 10 68 80 5 7 5 5 8 30 59 14 4 5 1 0 0 4 2 5 10 5 5 5 5 5 76 100 100 95
0 0 5 5 6 5 5 15 22 29 18 33 100 100 27 5 5 4 5 4 0 5 70 45 5 5 4 5 5 84 55 46 83
0 1 0 5 5 5 22 81 99 100 100 100 100 98 53 56 75 12 5 5 17 79 94 98 30 5 5 5 14 43 54 89 100
5 5 22 11 29 24 56 97 100 100 100 100 100 100 98 55 100 100 5 40 100 53 85 98 86 21 5 5 5 45 22 100 100

GFSFLT1_prec_cloud_006.txt.gz
Cloud_Cover
64 2 0 0 0 2 2 0 0 0 0 82 0 0 0 0 0 0 0 0 0 0 0 0 0 1 1 3 0 0 0 0 0
45 4 3 0 0 0 0 0 0 0 0 0 0 0 0 0 0 0 0 0 0 0 0 0 4 5 5 5 1 0 1 0 0
30 5 5 2 5 5 2 0 0 0 0 0 0 0 0 0 0 0 0 0 0 0 0 0 0 4 5 5 3 5 0 3 5
8 0 5 17 14 5 1 0 0 0 0 0 0 0 0 0 0 0 0 0 0 0 0 0 1 5 5 5 4 1 5 75 98
5 10 14 5 5 0 0 0 0 0 0 0 0 0 0 0 0 0 0 0 0 0 0 0 5 5 5 4 5 5 5 4 5
5 5 5 5 1 0 0 0 0 0 0 0 0 0 0 0 0 0 0 0 0 0 4 5 5 5 5 5 5 4 4 5 2
5 5 5 5 1 0 0 0 0 0 0 0 0 0 0 0 0 0 0 0 3 5 5 7 6 3 2 3 5 5 5 5 5
5 8 4 6 0 0 0 0 0 0 0 0 0 0 0 0 0 0 3 4 0 5 5 0 4 5 5 5 5 5 5 5 45
2 7 0 2 1 12 11 14 0 0 0 0 0 0 0 0 1 5 5 3 7 5 5 3 3 0 0 9 15 5 5 80 65
0 1 4 6 19 17 25 20 0 0 0 0 0 2 0 5 5 5 12 5 13 5 5 5 5 3 5 37 5 5 50 6 24
0 0 0 0 2 0 0 1 0 0 0 0 0 0 0 3 5 5 4 1 5 5 15 16 5 75 5 6 5 5 5 49 100
0 0 0 0 0 1 0 0 0 0 4 1 0 1 2 10 25 5 5 5 7 5 5 5 35 92 5 5 5 5 5 33 32
3 4 5 5 4 1 0 0 4 3 0 0 2 5 5 5 20 7 5 5 5 11 6 5 5 5 5 5 5 5 5 10 5
5 5 5 5 4 0 1 0 0 2 4 5 71 25 5 5 5 6 5 5 15 5 87 44 43 5 5 5 5 5 5 5 38
8 7 5 3 5 1 5 5 5 4 5 5 5 6 7 9 69 5 24 5 5 9 9 6 81 71 5 5 4 5 5 5 5
5 4 0 0 0 5 5 3 0 4 4 47 5 5 5 21 5 22 83 53 7 5 5 5 50 60 5 5 5 2 5 5 5
0 0 0 5 5 5 5 1 8 37 75 100 100 100 88 5 5 5 6 12 46 10 5 5 23 100 5 5 5 5 5 5 5
5 5 5 5 5 7 5 5 10 99 100 100 100 100 100 80 76 24 5 11 42 90 6 18 17 76 7 8 5 5 5 5 5
5 5 5 5 5 5 5 78 36 98 100 100 100 100 100 100 100 100 99 64 44 5 5 42 88 90 82 5 5 5 9 5 5
5 5 14 28 22 27 93 94 100 49 82 96 98 99 100 100 100 100 72 36 38 6 6 63 98 100 100 50 24 6 5 46 5

GFSFLT1_prec_cloud_009.txt.gz
Cloud_Cover
100 3 87 24 5 0 0 0 1 0 0 0 5 0 0 0 0 0 0 0 0 0 0 0 0 0 0 0 0 0 0 0 0
63 5 5 5 5 5 3 0 0 0 0 0 1 0 0 0 0 0 0 0 0 0 0 0 0 0 0 0 0 0 0 0 0
27 19 5 5 5 10 2 0 0 0 0 0 1 1 0 0 0 0 0 0 0 0 0 0 0 0 0 0 0 0 0 0 0
10 33 5 5 11 12 5 1 0 0 0 0 0 0 0 0 0 0 0 0 0 0 0 0 0 0 0 0 0 0 0 0 0
6 5 5 1 4 2 12 2 0 0 0 0 0 0 0 0 0 0 0 0 0 0 0 0 0 0 0 2 0 0 0 0 0
46 4 4 5 3 4 5 9 5 0 0 0 0 3 0 0 0 0 0 0 0 0 0 0 0 0 0 1 5 4 3 5 5
3 5 5 5 5 5 4 0 2 0 0 0 0 0 1 3 0 0 0 0 0 0 0 5 4 5 5 4 0 4 5 5 5
5 10 10 11 7 11 0 0 0 0 0 0 0 0 0 19 1 0 0 0 0 3 2 5 2 5 5 5 4 5 15 18 26
10 7 6 16 22 16 15 21 5 0 0 0 0 0 0 0 0 0 0 0 0 5 4 5 0 5 5 5 1 1 5 5 5
5 1 6 13 15 25 25 29 22 16 0 0 0 0 0 0 0 0 4 2 5 5 5 5 14 5 5 8 8 5 2 3 3
5 1 2 23 29 24 18 10 7 5 6 0 0 0 0 0 0 2 29 5 5 5 5 5 77 8 12 63 8 7 5 5 5
1 0 0 0 5 27 64 8 10 13 8 0 0 0 1 2 5 5 40 5 5 5 5 54 42 65 100 99 23 5 5 6 94
0 0 4 74 100 100 99 6 1 0 0 0 2 5 5 5 5 25 5 5 5 5 8 74 64 36 52 36 46 5 12 5 34
0 0 4 5 43 38 12 5 0 0 0 2 5 5 5 5 5 5 5 5 6 5 5 11 40 82 100 51 33 35 5 5 42
0 4 1 4 5 5 5 11 31 23 9 31 14 15 9 5 5 5 5 5 5 22 70 83 99 100 100 96 92 64 5 5 35
0 0 0 0 5 13 16 15 19 15 26 100 100 100 43 5 5 5 5 6 32 52 95 80 68 100 100 100 48 28 5 5 5
0 1 5 5 27 11 0 2 31 49 46 100 100 100 99 55 5 5 5 5 9 98 86 16 78 100 100 100 83 9 5 5 5
0 0 5 4 14 20 29 28 52 72 79 100 100 100 100 99 100 73 81 67 28 41 84 100 100 100 100 100 94 99 88 8 5
5 5 12 15 14 36 40 53 100 100 100 100 100 100 100 100 100 100 100 100 100 100 100 100 100 100 100 97 95 100 100 92 5
5 5 5 23 66 86 98 72 48 80 99 100 100 100 100 100 100 100 100 100 100 100 100 100 100 100 100 100 100 100 100 100 97

GFSFLT1_prec_cloud_015.txt.gz
Cloud_Cover
5 70 100 100 100 93 4 0 27 2 4 4 28 70 99 0 0 0 0 0 0 0 2 0 0 1 0 0 0 0 0 0 0
47 100 100 100 100 100 59 2 0 0 0 2 6 13 50 76 0 0 0 0 0 0 0 0 0 0 0 0 0 0 0 0 0
100 100 100 100 100 81 68 34 3 0 0 7 79 79 90 99 5 0 0 0 0 0 9 0 0 0 0 0 0 0 0 0 0
100 100 100 100 100 95 100 100 100 68 34 0 0 0 26 19 40 0 0 0 0 0 0 74 13 0 0 0 0 0 2 0 0
100 86 61 9 31 80 94 100 79 84 90 36 0 0 0 2 4 0 0 0 0 0 3 0 5 0 0 0 0 0 0 0 5
100 100 100 100 100 12 5 29 58 47 84 8 0 0 0 0 0 0 0 0 0 0 16 0 11 99 1 0 0 0 0 5 4
100 100 100 100 30 5 4 0 2 0 2 0 0 0 0 0 0 0 0 0 0 0 0 0 11 2 66 5 4 0 0 5 5
100 100 100 76 5 4 3 5 5 5 3 0 0 0 0 0 0 0 0 0 0 0 0 0 0 5 54 52 5 0 5 5 7
100 100 96 5 26 3 5 5 5 0 0 0 0 0 0 4 5 0 0 0 0 0 0 0 0 0 5 0 0 1 5 5 10
100 96 17 5 24 5 19 5 0 0 0 0 0 5 5 5 5 5 0 0 0 0 0 0 0 0 0 4 5 5 5 5 5
16 6 41 5 5 11 6 5 0 0 0 0 4 5 5 13 5 10 28 5 5 5 4 0 0 4 5 5 5 5 5 5 5
74 33 5 4 5 5 5 1 13 11 10 10 14 14 7 7 7 6 5 5 4 0 0 0 1 5 3 5 5 5 5 5 5
2 0 0 1 5 3 5 5 1 0 58 82 71 97 46 0 1 4 3 0 0 0 0 4 5 5 5 0 5 5 5 42 33
2 2 0 4 5 5 7 9 21 5 19 49 14 19 4 3 0 0 0 0 0 0 5 3 2 2 3 4 5 5 5 26 67
5 5 5 6 5 4 30 53 87 100 100 100 100 98 48 15 0 0 0 0 0 0 0 1 3 0 1 5 5 52 87 19 5
99 61 12 5 5 3 0 6 9 21 87 95 59 69 9 3 1 5 5 5 5 5 5 5 5 5 5 5 5 5 5 5 5
10 5 5 3 0 0 0 0 0 3 5 89 98 67 4 8 6 13 13 40 41 5 6 5 5 5 5 23 5 5 5 5 5
4 0 0 0 0 0 0 0 0 0 1 0 42 32 3 0 5 33 36 18 5 5 6 33 31 30 5 37 5 49 34 5 39
0 0 0 4 0 0 0 0 2 5 5 5 5 0 0 0 1 0 0 1 2 5 30 43 26 16 11 7 5 87 100 96 35
0 0 0 0 0 0 2 5 5 5 5 5 11 54 59 5 5 13 1 0 0 0 0 4 5 14 24 3 1 21 100 100 100

GFSFLT1_prec_cloud_018.txt.gz
Cloud_Cover
21 3 53 3 2 99 100 100 100 100 6 5 36 96 100 81 0 0 0 0 2 0 0 0 0 0 0 0 0 0 0 0 0
96 51 54 7 100 100 100 100 100 100 12 5 0 4 0 0 17 0 0 0 0 0 9 12 0 0 0 0 0 0 0 0 0
26 57 9 98 100 100 100 100 100 99 27 2 1 77 100 100 23 0 0 0 0 0 21 7 5 0 0 0 0 0 0 0 0
5 5 100 100 100 100 100 100 100 98 100 96 47 0 2 15 5 2 0 0 0 0 9 36 54 36 0 0 0 0 0 0 0
1 69 100 100 100 100 89 34 27 100 77 6 0 0 5 5 1 0 0 0 0 0 0 0 1 26 51 0 0 0 0 0 0
1 36 100 100 100 100 93 100 100 54 3 0 0 5 5 5 0 0 1 0 0 0 0 0 0 1 0 25 0 0 0 0 0
5 100 100 100 100 100 100 100 100 5 2 5 6 10 5 1 0 0 0 0 0 0 0 0 0 0 0 6 0 0 0 0 5
25 100 100 100 100 100 100 100 78 60 6 4 5 5 4 0 0 0 0 0 5 0 0 0 0 0 0 0 0 0 0 0 5
93 5 100 100 100 100 96 5 2 5 4 2 4 4 3 0 1 3 4 5 5 5 5 5 4 1 0 0 0 0 0 4 5
63 51 95 100 100 5 14 16 5 8 14 12 6 8 12 0 0 0 5 5 5 5 4 5 5 5 2 1 2 0 0 0 0
70 54 58 39 21 63 26 14 70 5 5 5 5 5 23 23 26 27 3 4 3 4 5 3 0 0 0 0 0 0 0 0 0
20 65 95 97 97 11 8 15 45 47 47 42 33 22 20 21 18 34 27 5 3 1 0 0 0 0 0 0 0 0 0 0 5
72 57 49 24 6 35 55 74 70 69 83 99 53 60 38 18 23 34 13 18 0 0 0 0 0 0 6 24 87 59 2 1 5
7 15 43 52 65 60 41 16 27 23 37 99 36 17 8 6 8 11 13 2 0 0 0 0 0 0 0 0 2 41 77 33 2
10 10 3 0 5 5 34 49 7 8 5 1 0 4 4 0 0 0 2 25 54 41 37 31 2 0 0 0 0 0 11 5 4
0 0 1 29 54 41 5 5 0 0 0 0 0 0 0 7 0 35 70 3 2 0 20 23 63 82 65 3 5 45 64 64 92
33 60 66 65 16 5 4 0 0 0 0 0 0 0 3 4 4 5 5 5 5 5 14 34 24 71 24 41 19 1 48 100 100
5 5 5 5 5 4 0 0 0 0 3 0 0 0 0 0 5 5 5 5 0 0 0 5 4 5 4 0 0 0 0 28 89
5 5 5 5 0 0 0 0 0 0 0 1 5 2 0 4 1 5 4 5 5 5 5 5 3 0 0 10 57 23 0 1 2
0 0 0 0 0 0 0 0 0 0 0 4 5 5 5 0 1 4 0 0 0 2 3 0 5 2 8 5 10 41 100 52 100

GFSFLT1_prec_cloud_021.txt.gz
Cloud_Cover
45 0 0 0 0 4 99 33 16 64 100 80 100 97 61 7 6 9 0 0 0 1 0 0 0 0 0 0 0 0 0 0 0
99 12 0 0 0 8 82 3 99 100 100 100 57 100 27 79 5 5 24 5 3 0 0 84 85 10 0 2 0 0 0 0 0
49 8 3 0 1 19 31 52 100 100 100 100 100 100 11 5 5 2 2 5 5 3 0 0 0 46 4 0 0 0 0 0 0
0 3 5 5 3 23 99 99 100 100 100 100 86 4 52 82 60 5 5 5 5 0 0 0 70 36 67 15 0 0 0 0 0
0 5 10 5 6 93 71 100 100 100 98 57 43 100 96 1 0 24 7 5 5 4 3 1 5 85 0 91 2 0 0 0 0
0 5 55 5 10 100 100 100 100 92 67 100 100 100 28 0 5 5 5 5 5 5 5 0 0 0 0 0 0 0 0 0 0
0 6 6 5 5 100 100 100 100 100 100 60 100 65 26 0 5 40 5 5 4 1 0 0 0 0 0 0 0 0 2 10 0
1 5 46 5 57 100 100 100 100 100 100 100 100 17 3 0 5 5 5 5 0 5 2 4 5 5 5 5 1 0 0 0 0
3 6 14 70 22 100 100 100 100 100 100 100 45 3 1 5 6 5 4 0 0 0 0 0 0 0 0 0 0 0 0 0 0
21 5 21 96 5 39 100 100 100 100 81 69 30 34 34 30 40 6 5 1 0 0 5 5 18 5 0 0 0 0 0 0 0
21 75 24 89 94 74 88 55 100 98 61 65 56 44 44 77 77 52 55 18 4 0 0 0 12 73 100 63 5 0 0 0 0
32 62 87 44 58 87 100 100 100 100 100 100 100 50 12 5 5 5 5 33 94 39 4 0 0 7 94 100 100 98 59 7 0
42 64 100 100 100 100 100 98 79 79 52 12 0 0 2 5 6 32 14 45 7 27 85 7 0 0 0 29 33 41 84 100 98
66 100 73 20 32 7 5 0 4 2 0 4 20 81 27 5 4 0 1 0 15 14 1 9 20 5 2 0 1 21 42 2 4
0 2 5 5 2 4 2 0 0 4 38 72 79 26 5 0 0 0 0 73 68 45 4 37 49 46 5 3 3 0 0 14 5
0 0 0 0 0 0 1 4 41 54 12 9 5 5 0 0 0 0 4 5 5 5 5 5 26 97 100 95 13 0 0 0 18
1 5 4 5 12 37 48 61 68 59 27 5 3 0 1 1 0 0 0 5 5 22 5 5 0 0 0 0 11 11 0 0 0
0 2 5 5 6 12 5 5 2 4 6 1 0 0 2 5 5 6 56 48 22 7 5 5 4 3 3 0 0 0 37 1 53
5 5 4 4 0 0 2 1 0 0 0 0 0 0 0 0 0 5 5 7 52 70 78 31 8 5 5 5 2 4 42 100 98
10 22 0 1 0 1 5 5 5 3 0 0 0 4 5 46 5 4 1 0 0 0 5 5 5 1 0 0 0 3 5 9 91

GFSFLT1_prec_cloud_024.txt.gz
Cloud_Cover
45 0 0 0 0 0 0 0 0 0 1 100 100 5 61 91 100 100 69 18 4 1 0 0 0 0 0 5 2 1 3 5 1
98 80 0 0 0 0 0 0 0 0 87 13 5 93 100 100 100 100 100 26 5 0 0 0 0 0 44 0 0 1 5 5 5
79 7 0 3 0 0 3 5 2 13 8 25 100 100 100 100 100 100 44 2 19 12 1 1 5 3 5 5 4 5 5 5 1
0 0 0 5 0 2 5 5 4 3 53 100 100 100 100 100 100 92 81 100 6 1 5 5 5 5 5 47 32 5 5 5 3
0 0 0 0 5 5 5 5 5 96 100 100 100 100 100 100 99 98 99 30 2 0 5 5 5 5 5 4 7 11 6 0 0
0 0 0 0 4 5 39 5 10 6 97 100 100 100 100 100 81 100 77 2 5 3 20 5 5 5 5 5 0 0 4 2 0
0 0 0 0 0 10 92 18 16 100 100 100 100 100 100 100 100 100 44 79 3 3 27 5 4 0 0 0 3 2 0 3 3
5 5 5 0 3 2 52 50 8 100 100 100 100 100 100 100 100 100 56 8 0 5 5 5 5 5 0 1 4 5 3 5 2
5 5 5 5 5 5 65 31 28 100 100 100 100 100 100 100 100 62 5 0 0 5 5 5 5 70 100 82 10 8 0 0 0
5 5 5 10 5 10 74 28 42 100 100 100 100 100 100 100 100 100 100 100 83 29 37 89 26 61 100 100 100 75 12 3 1
0 5 42 100 100 98 100 100 100 100 100 100 100 74 67 22 5 2 3 2 4 5 72 71 72 22 24 100 26 68 99 92 22
25 26 91 80 100 100 100 100 100 91 35 27 6 9 14 5 2 0 0 2 2 97 100 85 51 6 5 31 83 78 5 75 100
14 100 100 100 96 76 31 17 36 27 13 10 5 5 3 0 0 0 0 5 20 98 32 18 48 5 0 2 4 5 4 1 5
94 88 17 0 0 5 28 50 67 54 6 5 11 8 0 0 0 5 6 19 22 5 98 18 4 5 5 7 30 31 13 5 5
0 0 0 0 0 0 0 0 0 0 0 3 2 2 2 5 5 19 78 76 11 0 6 0 2 4 5 5 8 6 76 21 6
30 5 4 0 0 0 0 0 1 4 1 5 10 39 55 40 94 96 26 32 2 0 5 5 5 0 0 0 1 5 5 2 0
5 0 0 0 0 0 0 3 2 4 4 6 7 38 72 5 5 5 3 1 5 7 5 5 4 5 5 4 0 0 0 0 0
5 4 4 4 5 5 3 5 5 4 3 4 1 5 14 5 7 7 5 5 5 5 5 5 5 5 5 2 0 0 0 0 0
2 0 0 0 1 0 1 5 9 5 6 5 5 3 0 1 4 37 35 69 93 89 38 24 32 14 2 4 1 3 2 1 2
0 2 0 0 0 0 0 5 5 0 5 5 5 7 17 5 1 2 1 2 3 2 1 5 5 5 0 0 2 5 4 5 5

GFSFLT1_prec_cloud_027.txt.gz
Cloud_Cover
37 0 0 0 0 0 0 0 0 0 0 0 0 0 0 2 100 98 5 57 98 100 100 46 4 0 0 6 2 0 5 46 0
40 24 0 0 0 0 0 0 0 0 0 0 0 0 0 96 100 65 27 100 100 100 100 88 3 5 2 0 0 0 0 1 0
0 0 0 0 0 2 0 3 1 10 26 11 8 0 3 100 100 97 100 100 100 100 100 10 10 16 0 87 2 4 1 2 5
0 0 0 0 0 0 0 5 0 2 5 7 5 4 100 98 97 100 100 100 100 100 100 76 18 32 2 3 8 68 5 5 5
0 0 0 0 0 0 0 2 0 5 5 30 5 5 13 100 84 100 100 100 100 90 6 5 94 2 2 3 5 5 12 34 5
0 0 0 0 0 0 0 3 3 88 88 40 38 68 96 100 100 100 100 100 100 97 79 22 5 7 12 3 5 5 15 2 22
0 2 3 0 0 0 0 0 0 5 78 31 82 86 100 100 100 100 100 100 100 100 100 33 5 8 4 5 6 5 0 2 1
1 0 5 4 2 0 0 0 2 0 7 86 38 100 100 100 100 100 100 100 100 92 16 79 44 2 0 96 100 96 100 84 0
6 4 5 5 5 5 5 2 23 20 95 86 74 66 100 100 100 100 100 100 100 100 100 55 12 3 0 5 35 99 19 71 6
5 5 5 5 16 41 68 100 100 100 71 93 78 89 100 100 100 100 100 100 100 97 12 5 0 1 4 13 3 13 65 73 100
5 48 54 100 100 100 100 100 100 100 58 34 39 93 100 100 100 100 82 100 36 5 5 5 100 82 0 0 50 92 32 5 6
56 63 96 100 100 100 100 92 19 5 5 5 16 93 10 34 78 100 99 67 8 5 0 0 14 3 5 70 98 58 12 50 71
100 100 100 100 97 35 0 0 0 0 5 5 5 5 5 5 4 3 3 5 5 5 0 3 2 86 62 14 25 47 3 22 96
82 73 35 0 0 0 0 0 0 0 0 2 5 5 5 4 5 0 0 1 0 0 4 9 21 47 43 15 7 5 0 13 5
8 3 0 4 3 1 0 0 0 0 0 0 0 0 0 0 0 0 1 0 3 4 5 5 5 52 87 100 93 6 0 2 1
71 93 64 20 5 2 0 0 0 0 0 0 0 0 2 3 1 5 4 5 5 5 5 5 5 5 2 0 0 0 2 5 5
16 5 5 5 1 5 4 0 0 0 0 0 0 3 2 1 0 2 0 0 4 4 5 5 5 7 10 54 12 5 5 5 44
45 5 2 0 0 0 0 0 0 0 0 0 0 0 2 28 52 8 21 5 5 9 9 9 22 17 6 5 5 5 5 5 0
0 0 0 0 0 0 0 0 0 0 0 2 0 0 0 0 1 47 88 99 100 84 97 100 100 91 39 18 16 8 5 5 3
0 0 0 0 4 5 5 4 5 0 0 0 0 0 0 0 0 0 0 0 3 24 95 100 100 100 56 34 27 39 4 4 0

GFSFLT1_prec_cloud_030.txt.gz
Cloud_Cover
0 0 0 0 0 0 0 0 0 0 0 0 0 0 0 0 0 0 0 5 5 100 100 13 38 55 98 9 40 1 3 8 28
6 0 0 0 0 0 0 0 0 5 0 0 0 4 8 4 5 3 3 4 13 100 41 10 100 100 100 34 8 4 5 38 19
0 0 0 0 0 0 0 1 0 5 69 63 96 21 96 5 5 3 5 5 68 89 99 93 100 100 100 77 100 100 66 13 32
0 0 0 0 0 0 0 0 0 5 5 100 5 5 83 40 6 5 5 9 100 100 94 100 100 100 100 100 7 100 100 100 68
0 0 0 0 0 0 0 0 0 0 4 5 5 5 19 57 65 5 21 100 100 100 100 100 100 100 100 94 7 32 56 5 12
0 0 0 0 0 0 0 0 0 0 3 4 19 96 88 85 39 5 5 28 15 55 100 100 100 100 100 100 98 88 32 14 9
0 3 5 5 5 5 5 5 1 0 0 5 3 1 100 100 69 67 100 67 95 100 100 100 100 100 100 100 58 100 100 94 87
5 5 2 2 3 5 5 5 5 4 3 4 82 16 8 100 100 100 100 80 100 100 100 100 100 100 100 100 100 96 67 68 65
1 3 7 10 68 100 100 99 100 100 100 72 27 43 19 3 39 26 100 100 100 100 100 100 100 100 100 100 97 23 16 5 4
1 59 77 100 100 93 100 100 100 100 100 100 32 42 5 40 12 15 5 27 86 100 100 100 100 100 93 29 21 52 13 4 40
42 11 11 20 100 100 100 100 100 100 39 24 14 10 5 5 5 17 5 7 53 84 100 81 51 100 98 71 10 8 30 5 5
73 58 88 99 100 100 100 100 16 5 5 5 5 18 7 5 5 4 5 5 5 6 8 65 100 60 26 6 23 92 97 33 0
100 100 100 100 93 33 0 0 0 0 0 0 0 0 0 0 0 0 1 4 5 5 5 5 5 6 14 5 9 17 10 7 1
78 51 6 5 5 5 5 1 0 0 0 0 0 0 0 0 0 0 0 0 0 0 0 0 1 1 4 4 0 0 1 5 5
6 7 5 28 52 57 5 5 5 5 4 4 2 0 0 0 0 0 0 0 0 0 0 0 0 0 0 5 7 5 7 5 6
0 15 60 62 8 5 5 5 8 16 3 0 0 0 0 0 0 0 0 0 0 2 5 5 3 5 5 5 5 5 5 5 5
0 3 0 0 2 0 0 0 0 0 0 0 0 0 2 5 4 5 5 0 0 0 0 0 3 4 5 5 5 5 5 5 49
0 0 0 0 0 0 0 0 0 0 0 0 0 0 0 1 36 30 6 2 0 0 0 0 0 0 0 0 1 1 3 5 5
0 0 0 0 0 0 0 0 0 2 5 3 0 0 0 0 0 1 2 0 5 5 5 5 5 1 0 0 1 1 1 0 0
0 0 0 0 0 0 0 0 0 2 0 0 0 0 0 0 0 0 0 0 0 0 3 5 4 0 0 0 0 0 0 1 5

GFSFLT1_prec_cloud_033.txt.gz
Cloud_Cover
5 0 0 0 0 0 0 0 0 0 0 0 0 2 0 0 0 0 0 3 4 1 0 52 6 5 59 100 35 62 65 54 99
47 4 3 0 0 0 0 0 0 0 0 2 2 5 1 0 1 0 5 6 5 5 4 5 87 96 100 100 86 86 90 100 100
18 5 5 1 0 3 0 0 0 0 4 63 80 92 6 4 5 51 80 70 24 50 94 24 39 40 77 100 94 100 100 100 100
100 29 5 5 4 2 0 0 0 0 0 1 5 4 5 33 20 30 100 100 89 58 93 15 24 43 99 100 100 100 100 100 100
100 41 5 5 0 0 0 0 0 0 0 0 0 0 0 1 0 9 10 5 87 100 69 6 70 100 100 100 100 100 100 100 100
40 4 5 1 0 0 0 3 2 4 0 0 0 0 4 0 1 90 22 72 47 27 100 89 100 100 100 98 100 100 100 100 100
27 6 4 0 4 5 5 42 64 56 53 54 71 33 3 1 2 13 93 100 100 94 47 53 82 100 100 100 100 100 100 100 100
5 5 5 5 5 5 5 32 22 17 31 100 27 84 64 47 82 61 7 5 100 100 100 100 100 100 100 100 100 100 100 100 100
5 5 5 3 4 2 1 16 92 100 100 96 100 28 97 100 100 100 87 32 5 28 99 100 100 100 100 100 100 100 100 100 100
13 0 2 0 1 99 100 100 100 100 100 97 4 5 4 31 85 100 100 98 100 41 11 31 65 100 100 100 100 100 100 100 100
100 71 42 68 100 100 100 100 100 95 18 36 5 0 5 5 0 1 25 58 83 6 22 8 11 5 5 36 80 100 100 100 100
99 100 97 57 62 100 100 74 0 5 4 5 3 0 4 0 0 0 0 0 1 2 4 5 5 5 5 3 5 6 50 69 92
100 100 100 57 28 0 1 5 5 2 5 5 5 5 2 0 0 0 0 0 0 0 0 0 0 0 0 0 0 0 4 4 5
100 83 5 5 1 2 2 2 5 5 5 5 1 1 0 0 0 0 0 0 0 0 0 0 0 0 0 0 0 0 0 0 0
87 9 5 0 0 0 2 3 5 4 2 0 0 0 0 0 0 0 0 0 0 0 0 1 4 4 7 17 54 6 10 28 61
52 5 5 0 0 0 0 0 0 0 0 0 0 0 0 0 0 0 3 2 0 0 0 5 5 92 7 5 5 5 5 5 5
6 5 2 0 0 0 0 0 0 0 0 0 0 0 1 0 2 4 1 0 0 0 0 0 0 0 0 0 0 0 0 1 4
5 3 0 0 0 0 0 0 0 0 0 0 0 0 0 0 1 0 0 0 0 0 0 0 0 0 0 0 0 0 0 0 3
5 0 0 0 0 0 0 0 0 0 0 0 0 0 0 0 0 0 0 4 4 5 5 5 5 5 4 5 0 0 2 4 5
0 0 0 0 0 0 0 0 0 0 0 0 0 0 0 0 0 0 0 0 5 5 5 5 5 5 5 5 5 5 5 1 5

GFSFLT1_prec_cloud_036.txt.gz
Cloud_Cover
5 5 5 5 16 5 2 0 0 0 0 0 0 0 0 0 0 0 0 0 0 0 0 5 5 4 3 0 5 33 42 36 17
11 31 15 16 5 5 8 5 2 0 1 23 33 22 1 0 0 0 1 0 4 5 5 11 97 35 81 66 94 12 18 100 100
97 95 58 6 4 70 100 28 4 0 0 16 21 43 0 0 1 50 7 3 28 49 100 100 100 100 100 98 65 99 91 57 36
100 96 55 79 100 62 20 5 1 0 0 0 0 0 0 0 8 1 13 19 100 100 100 100 100 100 67 100 68 33 76 100 100
100 100 100 100 69 32 5 3 0 0 0 0 0 0 0 0 0 0 11 1 6 13 2 66 99 52 100 98 78 5 100 100 100
100 100 100 59 54 49 5 3 0 0 0 0 0 0 2 2 0 2 2 1 3 25 84 87 82 100 99 94 99 100 100 100 100
99 75 74 5 5 5 5 5 4 5 4 5 5 5 5 5 5 5 5 5 5 5 5 100 100 100 100 39 100 100 100 100 100
13 49 66 7 3 2 5 5 5 40 1 17 25 25 5 5 5 1 5 12 7 66 5 21 8 100 100 100 100 100 100 100 100
71 65 5 5 5 5 6 42 92 100 100 100 88 5 5 5 5 5 5 71 98 100 96 6 56 90 98 100 100 100 100 100 100
15 5 5 5 33 85 100 100 100 100 96 24 8 5 5 3 0 0 0 0 0 1 2 5 5 5 5 6 91 100 100 100 100
98 100 100 100 100 100 100 100 81 3 0 0 0 0 0 4 5 4 0 0 0 0 0 0 0 3 5 1 1 1 10 37 98
100 100 100 92 83 100 48 10 5 2 2 0 0 0 4 0 0 0 0 0 0 0 0 0 0 0 0 0 0 0 0 0 2
100 100 100 100 8 68 57 18 5 2 0 0 0 0 0 0 0 0 0 0 0 0 0 0 0 0 0 0 0 0 0 0 0
100 100 100 54 71 81 87 6 5 5 1 0 0 0 0 0 0 0 0 0 0 0 0 0 0 0 0 0 0 0 1 1 4
100 100 100 24 58 100 30 5 5 12 0 0 0 0 0 0 0 0 0 0 0 0 0 4 4 1 5 5 5 5 28 96 100
87 88 74 98 100 84 5 5 60 3 0 0 0 0 0 0 0 0 0 0 0 0 0 0 0 0 0 0 0 0 0 0 5
97 100 100 97 49 11 24 49 5 0 0 0 0 0 0 0 0 0 0 0 0 0 0 0 0 0 0 0 0 0 0 0 3
100 78 56 54 75 46 54 8 0 0 0 0 0 0 0 0 0 1 1 0 0 0 0 0 0 0 0 0 0 0 0 0 2
83 58 32 61 73 49 6 5 0 0 0 0 0 0 0 0 0 0 0 0 0 0 2 0 0 0 0 0 0 0 0 0 5
50 52 68 88 49 5 5 0 0 0 0 0 0 0 0 0 0 0 0 0 5 0 4 5 5 5 5 5 0 0 0 5 5

GFSFLT1_prec_cloud_042.txt.gz
Cloud_Cover
0 0 0 0 5 0 0 2 5 5 5 5 4 0 0 3 16 15 2 0 0 0 0 0 0 3 5 5 5 4 5 5 5
0 0 0 0 0 5 5 4 5 27 97 97 58 78 100 30 32 17 12 10 0 67 74 1 0 24 3 14 9 5 5 5 80
0 0 0 0 0 0 14 5 4 99 100 58 100 100 100 48 16 8 9 0 0 8 93 6 5 2 4 5 5 12 33 39 99
0 0 0 0 62 97 99 95 76 33 43 33 75 54 76 26 18 15 9 0 0 1 23 6 7 8 7 0 3 99 100 97 26
7 4 5 21 100 97 89 17 77 5 5 5 5 5 5 35 17 20 9 0 0 13 1 9 5 5 24 12 36 82 85 100 100
13 68 100 100 95 42 47 5 5 4 5 5 5 5 44 43 26 37 5 1 2 5 3 0 1 1 0 4 4 46 35 43 7
99 37 47 100 85 89 99 20 5 10 57 77 14 28 22 23 15 15 2 0 1 0 0 0 0 0 2 0 0 5 5 13 25
95 43 7 5 21 18 25 16 28 38 67 65 50 8 15 23 5 5 4 0 0 0 0 0 0 0 0 0 0 0 1 5 0
100 80 63 37 9 12 22 29 14 100 78 73 61 8 12 38 36 5 5 0 2 0 0 0 0 0 0 0 0 0 0 0 0
48 94 71 27 82 89 43 10 76 65 98 99 55 52 5 91 5 27 5 5 5 3 0 0 0 0 0 0 0 0 0 0 0
50 77 91 100 100 100 96 65 55 85 100 78 34 38 33 17 64 9 15 5 5 5 0 0 0 0 0 0 0 0 0 0 0
77 91 100 90 100 100 100 71 89 97 92 100 40 21 30 74 89 62 34 6 6 6 5 1 0 0 0 0 0 0 0 0 0
89 96 100 72 68 100 100 100 100 100 100 100 100 100 82 100 71 75 88 5 35 5 5 1 0 0 0 0 0 0 0 0 0
85 85 91 81 5 10 83 100 100 100 97 100 100 100 100 100 78 69 58 53 8 5 5 4 0 0 0 0 0 0 0 0 0
35 69 47 6 5 53 80 100 97 100 100 100 100 100 100 100 94 45 74 42 82 6 5 2 0 0 0 0 0 0 0 0 0
13 87 41 5 7 22 100 100 100 100 100 96 100 100 100 96 94 99 64 28 22 5 5 0 0 0 0 0 0 0 0 0 2
100 65 6 96 100 100 100 100 100 100 100 100 96 63 92 93 60 44 20 43 5 5 0 0 0 0 0 0 0 0 0 0 0
100 95 100 57 42 45 98 92 98 100 98 93 72 74 65 27 5 5 5 5 4 3 0 0 0 0 0 0 0 0 0 0 2
80 26 13 59 69 77 100 96 64 63 85 96 83 63 25 18 36 4 1 5 0 0 0 0 0 0 0 0 0 0 0 0 5
63 34 55 99 42 69 100 83 52 85 84 42 60 5 6 5 5 7 5 5 5 0 0 4 5 3 0 0 0 0 5 5 5

GFSFLT1_prec_cloud_045.txt.gz
Cloud_Cover
0 0 0 0 0 0 0 0 1 1 0 0 0 0 2 98 63 14 17 45 5 10 7 0 0 0 0 0 0 0 0 1 5
0 0 0 0 0 0 0 0 0 0 0 5 5 1 5 64 93 96 28 20 5 5 98 91 6 1 0 1 3 8 3 2 5
0 5 3 2 0 3 3 2 0 5 4 85 99 8 5 6 32 27 21 5 5 5 88 19 13 24 21 6 0 5 1 0 0
5 5 5 5 5 58 50 13 5 58 100 97 12 5 5 8 26 12 66 5 5 5 20 11 5 4 5 0 9 26 0 2 8
96 5 5 7 81 64 81 54 88 100 100 88 5 5 5 34 100 100 54 5 5 11 5 5 5 0 0 0 0 0 87 26 6
8 12 8 5 78 92 83 34 94 100 98 66 80 44 94 99 99 96 13 40 5 6 28 5 5 3 1 16 0 0 8 9 1
100 98 78 55 58 100 100 100 22 7 99 79 71 23 29 13 21 30 43 8 5 11 35 5 5 6 5 3 0 0 0 4 2
100 100 100 100 100 100 100 93 96 95 15 5 5 5 13 5 5 12 83 37 98 22 20 17 5 5 5 3 0 0 0 0 0
100 100 100 100 100 100 100 100 100 39 7 16 80 32 7 17 42 100 98 87 95 99 40 82 22 5 5 5 0 0 0 0 0
91 99 99 100 95 100 98 100 100 99 49 70 45 6 21 7 14 99 94 88 88 74 82 7 7 5 6 5 4 4 2 0 0
100 100 96 94 52 27 54 86 87 48 37 30 19 42 38 25 61 100 98 99 89 100 100 44 74 12 14 5 5 5 5 0 0
99 100 98 51 72 56 27 74 89 93 76 20 88 99 100 100 98 90 100 100 100 100 100 100 80 37 62 83 27 5 5 4 0
98 88 97 32 59 25 5 5 5 3 5 5 78 85 90 100 100 100 100 100 100 100 100 100 91 47 54 90 51 5 5 5 0
4 99 58 89 11 5 5 5 5 0 4 5 84 97 100 100 100 100 100 100 100 100 100 89 97 87 41 64 11 5 5 5 0
4 25 97 100 35 5 5 5 5 4 4 5 82 100 100 100 99 100 100 100 100 87 96 95 84 46 5 35 15 5 5 0 0
0 3 100 88 89 84 53 5 5 5 6 22 92 100 94 99 100 100 100 100 67 72 80 66 61 46 92 24 5 5 5 0 5
14 46 100 95 92 94 78 100 43 5 5 10 6 32 86 67 89 63 8 63 83 55 5 8 7 5 5 5 5 5 0 0 2
100 100 100 100 100 100 96 89 68 51 43 74 31 5 5 46 40 12 6 9 13 5 5 5 5 3 5 5 5 1 0 0 5
100 100 74 100 100 100 100 41 12 5 56 93 27 5 7 30 50 5 4 5 2 0 2 3 1 3 5 4 2 0 0 0 5
100 100 99 100 100 99 72 5 5 7 5 40 40 5 42 10 5 5 0 2 4 5 5 1 0 0 0 0 0 0 0 5 5

GFSFLT1_prec_cloud_048.txt.gz
Cloud_Cover
0 0 0 0 0 0 0 0 0 0 0 0 0 0 0 0 99 96 20 2 5 5 100 89 1 0 0 0 0 0 8 0 0
0 0 0 0 0 0 0 0 0 0 0 0 0 0 1 5 32 37 5 5 52 5 98 99 20 24 12 7 2 6 0 0 0
1 0 0 0 0 0 0 0 0 3 5 5 5 5 17 30 100 68 44 9 5 10 94 14 15 5 8 18 40 5 2 8 2
13 3 4 4 4 3 4 4 5 5 5 5 24 47 5 70 100 47 100 9 5 7 13 5 6 10 8 5 10 6 7 29 24
7 5 5 5 5 5 5 5 5 5 5 6 14 82 31 69 100 100 100 6 19 6 5 6 5 5 14 28 21 17 10 32 45
100 86 50 51 18 16 18 11 40 35 12 34 100 76 85 97 88 33 45 10 8 48 55 6 78 48 20 51 11 22 43 21 5
100 100 100 100 100 100 100 100 100 100 100 100 98 97 38 42 63 5 17 47 80 56 51 59 100 38 14 20 7 5 5 9 5
93 100 100 100 100 100 100 100 100 100 100 100 97 99 71 45 75 57 5 5 6 23 75 99 90 72 6 5 8 96 75 18 5
2 57 97 100 100 100 100 100 100 100 100 100 100 100 82 81 33 77 6 71 59 83 70 100 100 85 7 79 100 100 99 33 5
1 5 4 66 78 86 100 100 100 100 100 69 46 11 10 85 12 77 66 5 5 98 100 100 100 54 58 100 100 100 61 62 17
4 5 5 5 5 34 50 64 80 18 18 5 5 5 5 5 5 64 80 51 75 100 100 100 100 75 37 98 100 100 84 96 54
7 3 5 5 5 5 5 7 22 42 8 5 4 0 0 0 2 5 71 100 100 100 100 100 100 100 100 100 100 100 92 81 38
4 5 5 4 74 7 5 5 5 5 5 5 5 5 0 5 5 8 31 100 100 100 100 100 100 100 100 100 100 100 91 46 72
3 5 5 5 24 90 31 5 5 5 5 5 5 5 0 17 5 10 67 99 98 100 99 87 100 100 100 99 98 85 61 71 35
0 0 0 0 2 5 42 32 5 12 5 23 48 7 5 5 69 100 95 99 54 86 100 100 100 100 77 48 36 37 95 99 67
2 1 0 0 0 0 5 72 100 40 68 59 79 77 8 5 88 100 16 5 10 5 36 22 24 5 5 5 5 5 5 15 5
4 5 5 8 69 100 99 90 99 55 20 5 5 26 80 37 55 100 56 5 5 5 5 5 5 5 5 5 5 5 5 5 5
4 33 100 100 100 100 99 95 100 99 88 78 11 12 7 5 100 100 73 5 5 5 5 5 5 4 0 1 1 0 5 5 5
91 89 71 100 100 100 100 100 100 100 90 68 55 5 5 5 18 6 5 71 5 0 0 0 0 0 0 0 0 0 3 4 5
100 100 79 100 100 100 100 100 100 96 94 49 5 5 5 0 4 5 44 5 0 0 0 0 0 0 0 0 0 0 0 0 5

GFSFLT1_prec_cloud_051.txt.gz
Cloud_Cover
0 0 0 0 0 0 0 0 0 0 0 0 0 0 0 0 59 98 9 5 5 5 100 91 6 1 4 0 0 0 0 4 4
0 0 0 0 0 0 0 0 0 0 0 0 0 4 1 1 29 30 5 3 4 7 44 34 9 2 23 22 2 0 0 0 4
0 0 0 0 0 0 0 0 0 0 0 0 0 4 4 4 93 69 89 32 25 6 13 5 12 11 35 5 5 8 7 6 22
1 0 0 0 5 4 4 0 0 0 0 3 5 5 5 5 100 78 99 98 5 5 5 5 10 5 7 22 23 17 29 38 57
9 5 8 2 0 5 5 5 5 5 7 5 5 5 6 58 100 100 83 98 5 5 5 5 8 43 24 44 85 100 100 64 17
4 9 40 74 50 10 42 32 64 39 21 63 87 94 94 95 41 74 99 80 31 5 5 16 16 33 17 9 35 64 5 5 5
0 0 1 68 100 99 100 100 100 100 100 98 100 100 98 78 100 100 100 38 59 72 25 51 5 12 26 51 27 6 70 5 5
0 13 0 0 0 7 19 63 100 100 100 100 100 100 100 100 96 98 98 98 73 49 46 5 5 11 5 7 15 80 100 40 7
0 1 0 0 0 0 0 4 24 55 100 100 100 100 100 100 96 98 100 100 16 36 5 5 5 5 49 99 59 30 100 100 98
0 0 0 0 1 4 4 4 3 4 13 63 47 33 14 35 9 4 5 5 1 2 5 5 47 95 100 100 100 100 100 64 92
0 0 4 0 0 3 6 5 5 2 0 0 1 4 20 42 18 5 0 0 0 0 5 6 71 100 100 100 100 100 100 100 100
0 0 3 3 2 0 1 5 5 5 4 0 0 0 2 2 5 5 0 5 5 7 9 98 44 100 100 100 100 100 100 100 100
0 0 1 4 4 0 0 0 5 5 5 5 5 5 5 5 5 5 1 5 96 100 100 89 57 63 98 76 100 100 100 100 100
0 0 0 0 1 0 0 0 7 80 42 5 5 5 5 5 5 5 5 5 100 98 100 100 47 78 94 100 100 100 100 100 100
0 0 0 0 0 0 0 0 0 3 5 5 45 7 5 5 5 5 5 5 55 99 100 99 46 18 16 22 85 100 100 100 39
0 0 0 1 0 3 0 0 5 5 5 48 47 42 44 17 63 56 44 41 21 7 64 100 100 55 5 5 5 5 5 5 5
0 0 4 2 0 1 5 5 19 41 99 100 98 100 100 80 100 100 24 5 5 10 81 70 35 6 12 0 0 5 5 5 5
3 1 0 3 5 5 33 99 86 100 100 95 68 80 81 96 91 59 14 4 5 5 5 5 5 5 0 0 0 0 0 3 5
84 88 6 8 35 32 35 100 100 100 100 100 100 68 20 68 90 88 94 5 5 5 5 5 5 0 0 0 0 0 0 0 3
54 90 100 100 100 98 34 59 98 100 100 100 100 100 55 50 61 88 32 5 5 1 5 1 0 0 0 0 0 0 0 0 0

GFSFLT1_prec_cloud_054.txt.gz
Cloud_Cover
0 0 0 13 66 47 4 0 0 0 0 0 0 0 0 0 0 10 0 0 0 10 100 95 0 7 5 5 4 1 2 5 5
0 0 0 0 7 28 0 0 0 0 0 0 0 0 0 0 17 7 0 1 3 48 8 6 20 13 20 46 47 6 5 5 1
0 0 0 0 0 0 0 0 0 0 0 0 0 0 0 1 50 45 87 27 32 5 81 98 27 11 5 5 10 19 20 10 29
0 0 0 0 0 0 0 0 0 0 0 3 3 5 5 5 9 69 95 27 43 99 81 79 87 51 24 11 20 32 98 100 93
0 0 0 0 0 0 0 4 5 5 5 5 5 5 5 19 66 75 45 10 26 98 55 21 48 68 57 97 62 75 88 49 25
0 0 0 0 0 0 5 4 5 5 60 82 54 74 74 99 81 98 100 100 100 70 27 57 51 92 97 33 26 10 8 6 29
0 0 0 0 0 0 0 2 3 16 20 73 86 99 91 100 90 88 88 100 100 100 94 77 100 43 5 5 5 4 5 7 5
4 12 0 3 0 0 0 0 0 0 0 4 73 100 100 100 100 100 100 100 100 100 100 81 18 6 5 2 4 5 5 34 45
22 24 16 6 1 0 0 0 0 0 0 0 0 5 87 100 100 100 95 43 6 54 18 5 5 4 0 0 1 5 5 77 100
5 9 11 9 0 0 0 5 5 5 4 0 0 1 4 5 5 5 5 0 1 4 4 3 0 0 0 3 5 5 5 11 99
5 5 0 0 0 2 2 0 2 5 5 5 2 0 0 0 0 0 0 0 0 0 0 0 4 0 2 6 7 5 5 5 75
2 3 0 0 0 5 4 2 0 0 0 5 5 3 5 5 5 5 5 5 5 5 0 1 5 95 99 100 91 43 5 5 11
0 0 0 0 0 0 0 0 0 0 0 0 27 5 5 5 5 5 5 5 5 5 5 0 5 78 100 98 100 100 5 5 21
0 0 0 0 0 0 0 0 0 0 0 0 4 4 16 89 16 5 5 42 40 5 5 5 5 46 58 100 100 100 92 71 5
0 0 0 0 0 0 0 0 0 0 0 4 5 5 48 54 74 74 46 6 52 41 56 74 9 5 5 6 79 71 28 30 12
0 0 4 0 0 0 0 0 0 0 5 5 25 65 78 82 99 100 100 100 100 98 100 100 93 11 5 5 82 86 35 5 5
57 5 6 5 5 5 0 1 3 5 5 5 6 39 89 98 73 100 100 100 97 100 100 80 96 39 5 5 5 5 5 4 0
29 5 8 26 65 65 30 14 5 34 6 5 36 96 100 94 100 100 100 100 100 100 100 100 64 48 5 3 0 4 4 0 0
35 18 56 100 100 83 54 57 54 82 22 13 5 80 100 100 100 100 100 72 85 87 85 69 42 66 5 5 5 2 0 0 2
93 100 100 100 100 98 100 100 98 100 51 65 57 60 86 100 100 100 100 100 100 100 100 62 10 6 5 5 5 5 0 0 5

GFSFLT1_prec_cloud_057.txt.gz
Cloud_Cover
0 0 0 100 68 100 98 20 10 0 0 0 0 0 0 0 0 0 0 0 0 7 98 0 18 28 28 8 5 9 30 20 50
0 0 0 37 87 30 0 0 0 0 0 0 0 0 0 0 0 0 0 6 42 38 10 5 13 10 10 60 34 35 100 26 12
0 0 0 9 26 13 0 0 0 0 0 0 0 0 0 0 0 3 0 0 1 5 8 9 54 30 49 41 98 93 100 82 98
0 0 0 0 9 10 0 0 0 0 0 3 5 4 5 3 5 5 5 25 5 5 12 77 61 94 25 8 87 90 100 98 97
0 0 0 0 0 0 0 0 0 0 0 1 5 5 5 6 39 30 57 26 72 82 98 100 100 97 73 88 89 100 28 65 100
0 0 0 0 0 0 0 0 0 0 0 0 5 39 63 81 40 100 100 100 100 100 84 100 100 97 61 91 100 98 55 10 5
4 0 0 0 0 0 0 0 0 0 0 0 0 10 14 35 82 73 91 100 100 100 98 91 97 100 100 82 6 5 6 2 0
13 9 2 2 0 0 0 0 0 0 0 0 0 0 0 0 0 4 3 32 100 96 43 84 92 27 5 5 5 5 2 0 0
28 28 12 14 7 4 0 0 0 0 0 3 5 0 0 0 0 5 4 5 14 6 5 5 5 3 0 0 0 0 0 1 0
30 24 24 18 4 1 0 0 0 0 0 0 3 5 5 5 2 0 0 0 0 2 2 0 0 0 0 0 0 0 5 5 5
28 26 26 17 5 0 0 0 3 0 0 0 0 1 5 5 1 4 0 4 5 0 4 2 1 0 0 0 5 59 14 75 92
1 8 13 2 1 0 0 0 0 0 0 0 0 0 0 5 5 5 5 0 5 5 5 5 5 5 0 0 5 74 68 88 38
0 0 0 0 0 0 0 0 0 0 0 0 0 0 0 0 0 2 5 5 5 5 5 5 5 5 5 5 5 77 100 61 100
0 0 0 0 0 0 1 1 0 0 0 0 0 0 2 4 5 5 5 5 5 5 5 5 5 5 5 5 10 27 30 38 40
4 2 4 5 3 3 1 2 0 0 0 0 2 2 5 5 5 66 52 8 39 64 74 28 8 8 46 92 100 78 100 34 6
55 0 5 32 22 5 78 9 11 4 2 3 5 4 0 2 14 5 18 34 60 31 64 44 62 99 100 100 100 96 40 93 53
10 16 5 9 14 5 16 58 57 24 4 1 5 5 3 5 5 5 5 5 51 100 85 83 72 100 100 100 100 100 100 99 56
39 18 9 24 49 59 86 100 91 91 5 18 11 0 4 5 5 5 5 5 6 54 91 100 89 85 100 100 100 100 100 100 100
5 5 15 97 100 100 100 100 100 53 69 95 54 5 9 9 5 5 5 5 66 54 62 71 87 78 89 46 62 81 62 52 82
5 37 67 33 100 100 100 100 100 100 100 100 100 100 43 60 67 100 26 5 7 100 99 100 100 99 100 100 100 100 100 100 91

GFSFLT1_prec_cloud_060.txt.gz
Cloud_Cover
0 0 47 85 15 26 97 91 24 0 0 0 0 0 0 0 0 0 0 0 25 83 1 85 60 55 27 0 5 5 5 9 8
0 0 28 97 14 100 40 0 0 0 0 0 0 0 0 0 0 0 0 27 64 14 6 4 4 7 28 100 98 68 32 18 16
0 0 3 60 62 28 11 0 0 0 0 0 0 0 0 0 0 0 0 6 6 0 3 4 5 27 98 72 47 81 91 90 91
0 0 0 27 24 4 0 0 0 0 0 0 0 0 0 0 5 5 1 68 20 23 39 95 72 99 25 78 63 95 78 94 93
0 0 0 8 15 0 0 0 0 0 0 0 0 0 0 0 1 0 3 5 5 9 5 96 100 100 100 86 70 99 100 100 100
0 0 0 0 0 0 0 0 0 0 0 0 0 0 0 0 0 0 5 2 3 12 20 33 75 84 98 95 100 100 100 96 50
0 3 2 0 0 0 0 0 0 0 0 0 0 0 0 0 0 0 0 0 24 22 10 5 4 4 67 68 100 95 45 5 4
16 4 2 5 2 3 4 2 0 0 0 0 0 0 0 0 0 0 0 0 19 17 0 0 0 0 1 0 4 5 5 0 0
36 30 7 10 18 5 9 0 0 0 0 0 0 0 0 0 0 0 0 0 44 9 0 0 0 0 0 0 0 0 0 0 0
38 30 23 20 18 5 7 0 0 0 0 0 0 0 0 0 0 0 0 0 0 0 0 0 0 0 0 0 0 0 0 0 0
42 37 32 22 14 6 5 0 0 1 0 0 0 0 0 0 0 2 5 2 0 0 0 0 0 1 0 2 5 2 0 0 3
20 39 38 25 17 5 5 0 0 0 0 0 0 0 0 0 0 0 0 0 0 2 5 0 2 5 5 5 5 5 5 4 5
8 35 28 19 16 2 0 0 0 0 0 0 0 0 0 0 0 0 1 5 2 1 0 0 3 5 5 5 5 81 93 9 5
5 5 8 2 4 3 4 1 1 5 5 4 1 1 0 2 5 5 4 5 5 5 5 5 5 5 5 5 14 93 100 100 96
40 18 6 4 5 4 3 4 0 0 5 5 4 5 5 4 3 0 4 5 5 5 5 5 5 5 5 6 51 99 100 100 100
5 5 21 83 28 5 4 2 0 0 0 5 5 5 5 5 4 2 4 5 0 0 0 5 5 5 5 5 22 80 35 100 100
95 59 64 75 89 78 5 5 5 8 10 11 38 5 5 5 2 5 5 5 5 5 3 0 3 5 5 5 21 50 5 11 94
74 57 47 94 98 88 27 89 24 72 47 96 59 16 41 64 10 5 5 5 5 5 5 2 0 1 1 5 5 5 5 5 5
5 5 44 56 87 70 85 98 100 100 100 100 100 99 99 99 100 90 58 5 5 5 5 5 5 0 0 0 2 5 5 5 5
37 7 69 100 100 70 92 100 95 61 100 100 100 100 100 100 100 100 100 100 100 100 71 5 5 2 0 0 0 0 0 0 2

GFSFLT1_prec_cloud_063.txt.gz
Cloud_Cover
3 2 98 5 2 0 2 64 84 0 0 0 0 0 0 0 0 0 0 9 27 99 24 11 83 68 30 24 30 4 0 5 5
1 0 71 30 1 46 99 42 0 0 0 0 0 0 0 0 0 0 0 58 8 11 0 3 9 79 88 97 42 56 92 62 59
0 12 100 42 2 97 6 0 0 0 0 0 0 0 0 0 0 0 0 2 0 0 2 8 43 50 100 34 93 100 91 88 81
0 0 61 96 89 5 0 0 0 0 0 0 0 0 0 0 0 0 1 0 0 0 1 74 38 98 20 5 6 14 93 68 97
0 0 1 95 26 1 0 0 0 7 0 0 0 0 0 0 0 0 0 0 0 4 10 9 83 46 0 2 5 51 93 42 92
0 0 0 0 1 0 0 0 6 0 0 0 0 0 0 0 0 0 0 0 10 20 14 62 21 0 0 0 0 0 2 4 22
3 0 0 0 0 0 0 3 0 0 0 0 0 0 0 0 0 0 0 0 28 62 12 22 0 0 0 0 0 0 0 0 0
4 0 0 2 0 0 8 15 0 0 0 0 0 0 0 0 0 0 0 9 23 0 0 0 0 0 0 0 0 0 0 0 0
32 5 5 5 5 8 34 3 0 0 0 0 0 0 0 0 0 0 0 0 35 0 0 0 0 0 0 0 0 0 0 0 0
44 37 4 4 2 0 20 1 0 0 0 0 0 0 0 0 0 0 0 0 0 0 0 0 0 0 0 0 0 0 0 0 0
18 45 44 0 0 0 0 5 0 0 0 0 0 0 0 0 0 0 0 0 0 0 0 0 0 0 0 0 0 0 2 0 3
0 1 55 18 0 0 3 4 3 0 0 0 0 0 0 0 0 0 0 0 0 0 0 0 0 0 1 5 2 5 5 5 5
3 5 19 28 6 1 4 0 1 1 3 0 0 0 0 0 0 0 0 0 0 0 0 5 5 5 5 4 5 5 5 5 5
32 60 5 16 34 11 5 5 5 5 5 5 0 0 1 0 0 0 0 0 2 3 2 5 5 5 4 4 5 5 5 24 17
100 69 5 10 37 11 18 5 5 5 5 4 1 0 4 4 0 0 0 0 0 5 5 1 1 1 0 0 0 1 6 44 100
100 88 94 48 63 42 7 5 67 93 8 5 5 5 5 5 5 0 2 0 0 5 5 4 2 0 0 2 5 5 5 4 9
97 100 100 100 100 100 98 34 24 26 5 31 8 17 5 80 5 5 5 5 5 11 5 5 5 5 0 0 1 2 2 5 3
95 99 100 100 100 100 91 75 46 57 31 100 75 39 42 51 80 46 27 28 46 15 31 16 5 5 5 5 5 5 8 52 5
100 100 100 100 100 100 100 100 100 100 100 95 56 88 100 100 100 100 99 92 98 96 98 50 99 42 19 5 42 95 64 81 9
100 100 95 100 62 98 100 100 100 100 100 100 100 100 100 100 100 100 100 100 100 100 100 100 95 100 98 37 100 100 16 100 24

GFSFLT1_prec_cloud_066.txt.gz
Cloud_Cover
0 0 3 1 0 0 56 29 99 0 0 0 0 0 0 0 1 70 22 82 68 24 0 13 61 51 72 61 19 0 0 0 5
0 0 0 0 0 2 88 100 0 0 0 0 0 0 0 1 21 85 52 69 44 3 3 15 24 26 38 40 92 62 69 38 51
0 0 90 16 39 60 99 22 0 0 0 0 0 0 0 4 5 56 95 1 0 0 9 17 76 15 98 12 27 49 53 79 56
0 8 96 13 67 96 28 23 0 0 0 0 0 0 0 19 8 33 93 0 0 3 21 16 15 100 13 2 6 0 9 7 17
0 66 99 100 49 4 0 0 0 0 0 0 0 0 0 26 24 47 48 0 5 9 19 10 77 21 5 0 1 0 0 0 0
4 5 22 89 17 0 0 4 6 2 4 1 0 0 7 9 12 28 4 0 21 21 9 6 22 2 0 0 0 0 0 0 0
0 0 0 2 0 0 0 3 2 5 3 1 0 2 0 5 0 5 0 2 38 22 7 0 0 0 0 0 0 0 0 0 0
0 0 0 5 4 0 0 5 0 0 0 0 0 0 0 0 0 0 0 14 36 0 0 0 0 0 0 0 0 0 0 0 0
0 0 0 3 2 0 0 0 0 0 0 0 0 0 0 0 0 0 0 20 11 0 0 0 0 0 0 0 0 0 0 0 0
9 9 0 0 0 0 0 0 0 0 0 0 0 0 0 0 0 0 0 5 0 0 0 0 0 0 0 0 0 0 0 0 0
5 63 74 6 0 0 0 0 0 3 2 0 0 0 0 0 0 0 1 6 0 0 0 0 0 0 0 0 0 0 0 0 0
5 4 52 97 0 0 0 0 0 4 3 0 0 0 0 0 0 0 0 0 0 0 0 0 0 0 0 0 0 0 0 0 0
4 5 6 19 74 2 1 5 5 5 5 5 3 0 0 0 0 4 0 0 0 0 0 0 0 0 0 5 5 1 0 2 5
5 5 5 5 100 45 5 11 48 64 5 4 5 3 4 3 4 5 5 5 5 5 0 0 0 5 0 4 3 0 0 0 0
5 5 5 4 80 98 63 45 69 60 12 5 16 27 6 5 5 5 5 5 5 5 4 0 2 0 0 0 0 0 0 0 0
5 5 5 5 8 100 100 100 100 100 100 100 100 100 52 28 5 6 5 5 5 7 5 4 3 5 5 0 0 0 0 0 0
15 85 91 98 70 77 99 100 100 100 100 100 100 100 100 58 10 26 33 46 50 74 81 84 10 6 35 5 4 4 5 5 5
100 89 100 100 82 12 25 100 100 100 100 100 100 100 100 100 100 21 61 78 96 100 100 91 100 100 69 33 44 57 56 5 5
100 100 100 100 100 100 80 99 100 100 100 100 100 99 73 98 67 86 50 44 100 100 100 100 100 94 100 60 78 84 45 7 5
100 100 100 100 100 100 100 100 100 100 82 100 100 100 100 96 96 82 100 100 100 100 100 100 100 100 47 6 6 7 98 20 50

GFSFLT1_prec_cloud_069.txt.gz
Cloud_Cover
67 7 5 5 3 3 39 90 98 0 0 0 0 0 0 0 22 96 93 14 74 25 0 88 19 56 98 33 20 24 0 0 3
8 2 4 0 0 1 20 89 2 0 0 0 0 0 0 41 100 67 49 28 0 0 12 13 56 51 38 100 96 88 99 38 38
0 1 1 54 4 31 79 91 0 0 0 0 0 0 0 19 16 100 82 0 1 4 8 18 100 100 92 66 78 100 95 100 90
0 0 66 39 26 66 35 0 0 0 0 0 0 0 0 50 12 81 33 4 5 18 62 14 1 76 5 2 2 0 8 49 56
0 14 66 2 62 70 2 0 0 0 0 0 0 0 0 58 8 71 6 0 13 25 0 0 1 9 4 1 0 0 0 0 0
0 0 46 100 58 1 0 0 0 0 0 0 0 0 20 37 41 67 0 2 21 23 0 0 2 0 0 0 0 0 0 0 0
0 0 0 82 94 0 0 1 0 0 0 0 0 0 20 31 27 18 0 8 46 6 0 0 0 0 0 0 0 0 0 0 0
0 0 0 6 1 3 0 2 3 3 14 1 3 14 21 10 0 0 0 8 26 3 0 0 0 0 0 0 0 0 0 0 0
0 0 0 0 0 0 0 4 2 12 5 5 0 0 0 0 0 0 0 5 3 0 0 0 0 0 0 0 0 0 0 0 0
4 2 0 0 0 4 2 9 25 7 7 3 0 0 0 0 0 0 0 0 0 0 0 0 0 5 0 0 0 0 0 0 0
5 22 9 0 0 5 0 8 17 4 6 4 0 0 3 3 4 5 0 26 0 0 0 2 3 5 3 5 4 0 0 0 0
5 8 40 56 0 0 0 1 1 0 0 5 5 5 5 5 5 5 5 6 93 1 5 5 5 5 5 3 0 0 0 0 0
5 5 8 14 74 0 0 0 5 0 5 9 5 5 5 21 47 5 5 5 4 5 5 5 5 5 5 3 0 0 5 4 0
5 5 5 6 5 80 3 0 1 6 11 10 67 79 33 14 100 54 65 81 84 5 5 5 5 5 5 5 4 0 5 0 0
4 0 0 2 31 39 55 8 53 100 74 36 91 100 100 100 100 100 100 99 48 30 15 39 11 6 17 5 5 5 2 3 0
5 10 6 5 5 38 95 76 95 66 58 59 92 85 100 100 100 100 100 100 89 100 100 74 56 70 13 5 5 77 5 5 4
10 25 46 46 80 100 100 100 90 100 44 66 74 100 100 100 100 100 100 100 99 81 67 40 100 90 29 15 12 98 88 100 100
32 9 100 100 100 100 100 100 100 100 100 100 84 100 100 99 100 100 100 87 96 74 72 100 100 100 71 85 97 100 100 100 98
100 100 99 100 100 100 100 100 100 99 100 98 100 100 99 100 100 100 100 100 100 98 100 95 100 100 100 97 97 100 100 100 30
99 100 100 100 100 100 100 100 100 100 100 100 100 100 100 100 100 100 100 100 100 100 100 100 100 100 100 100 100 100 100 100 94

GFSFLT1_prec_cloud_072.txt.gz
Cloud_Cover
10 5 5 5 6 91 55 98 5 1 0 0 0 0 0 100 15 0 27 18 11 19 40 21 48 56 78 94 84 78 0 4 0
5 17 13 42 47 40 52 100 1 0 0 0 0 0 8 86 50 24 24 27 1 75 15 13 98 93 100 97 99 100 100 88 48
5 28 33 25 28 24 55 95 0 0 0 0 0 0 0 71 72 100 30 0 7 23 95 97 100 100 100 84 69 97 100 100 100
5 13 98 6 12 64 34 0 0 0 0 0 0 0 0 77 11 68 7 0 8 16 88 2 4 7 3 1 0 0 0 41 49
0 0 14 2 0 7 0 0 0 0 0 0 0 0 0 1 3 90 0 0 14 32 0 0 0 0 0 0 0 0 0 0 0
0 0 0 20 3 18 0 0 0 0 0 0 0 0 0 98 93 14 0 0 20 12 0 0 0 0 0 0 0 0 0 0 0
2 0 1 100 100 0 0 0 0 0 0 0 0 0 0 51 0 0 0 0 30 17 0 0 0 0 0 0 0 0 0 0 0
0 0 0 0 25 0 0 0 0 0 0 0 0 0 9 0 0 0 0 2 25 1 0 0 0 0 0 0 0 2 0 0 0
1 0 0 0 0 0 0 0 0 0 0 0 0 0 0 0 0 0 0 0 16 0 4 0 0 0 0 0 3 5 5 5 0
5 5 5 3 0 0 0 0 0 0 0 0 0 0 0 0 0 0 0 2 3 4 5 4 3 0 0 0 5 5 5 5 0
5 5 5 5 4 0 0 0 7 0 0 0 3 0 0 0 0 5 5 5 5 5 5 5 1 1 4 5 5 5 5 5 5
5 5 5 5 5 4 5 1 0 0 0 0 0 0 2 5 5 5 5 5 5 5 5 5 73 87 71 13 5 5 5 5 5
5 5 5 4 5 1 0 0 0 0 0 0 7 5 5 7 5 5 34 98 100 100 100 100 97 33 6 5 6 5 5 5 5
5 5 2 4 4 0 0 0 2 5 5 5 10 5 17 18 90 85 5 98 86 100 100 65 73 50 48 100 7 5 5 5 5
5 5 5 0 3 5 4 5 5 5 7 5 20 92 44 100 100 100 76 10 44 100 100 80 100 100 100 100 51 20 5 5 4
5 5 5 5 5 1 5 5 5 5 5 23 65 74 100 100 100 99 100 96 74 100 100 100 100 100 100 100 100 90 5 5 5
5 5 5 5 5 5 15 5 63 98 30 7 22 44 70 100 100 100 100 100 100 75 98 100 100 100 100 100 100 100 100 98 10
5 5 5 39 16 17 28 70 100 99 100 89 44 89 94 100 100 100 100 100 100 100 100 100 100 100 100 100 100 100 100 87 98
5 12 11 61 99 85 100 98 100 100 100 99 100 100 100 100 100 100 100 100 100 100 100 100 100 100 100 100 100 100 100 64 100
5 2 9 96 84 73 75 97 100 100 100 100 100 100 100 100 100 100 100 100 100 100 100 100 100 100 100 100 100 100 100 100 100

GFSFLT1_prec_cloud_075.txt.gz
Cloud_Cover
24 7 68 100 78 40 99 5 26 5 5 5 5 5 32 0 0 6 25 15 100 100 100 88 74 24 71 85 97 2 8 26 38
5 5 12 99 13 28 98 94 43 5 5 5 5 0 33 0 0 0 42 12 45 100 10 4 100 100 100 100 100 99 45 46 62
5 5 5 5 26 26 58 5 5 5 5 5 1 0 0 0 0 0 0 0 23 86 22 0 32 96 65 60 56 94 100 100 100
5 14 40 13 12 43 5 5 5 5 5 0 0 0 0 0 0 0 0 0 78 4 15 0 0 5 0 0 1 0 2 12 30
5 96 22 5 4 63 0 1 3 0 0 0 0 0 0 0 0 0 0 0 49 18 0 0 0 0 0 0 0 0 0 0 0
0 0 0 0 0 0 0 0 0 0 0 0 0 0 0 0 0 0 0 0 33 12 0 0 0 0 0 0 0 0 0 0 0
0 0 0 0 0 0 0 0 0 0 0 0 0 0 0 0 0 0 0 0 27 16 0 0 0 0 0 3 5 0 0 0 0
0 0 0 0 5 0 0 0 6 0 0 0 0 0 0 0 0 0 0 0 0 5 0 0 0 4 5 5 5 4 0 0 0
2 9 1 2 3 5 4 21 0 0 0 0 0 0 0 0 0 0 0 0 2 0 0 0 0 4 5 5 5 5 5 5 5
0 0 0 1 4 5 5 6 2 0 0 0 0 0 0 0 0 0 0 0 0 0 0 0 5 5 5 5 5 47 96 24 5
5 3 32 9 5 5 5 5 3 0 1 0 0 0 0 0 0 0 0 0 0 0 5 5 5 5 6 63 97 100 100 17 81
0 61 10 5 5 5 5 4 3 5 5 1 0 5 0 0 0 5 5 2 5 5 5 5 5 49 60 60 100 81 29 5 5
5 37 5 5 9 5 5 5 5 5 5 0 3 0 2 3 2 5 10 25 68 5 5 5 34 45 100 36 40 96 5 5 5
5 22 27 91 17 5 5 5 2 0 0 0 0 0 4 5 5 5 53 68 45 59 26 21 96 70 100 100 100 92 93 44 33
92 93 90 26 9 5 5 5 0 0 0 0 0 0 2 5 14 79 53 70 100 100 100 98 86 100 91 35 100 100 100 88 5
49 100 67 5 5 5 5 5 3 4 3 0 1 1 5 15 68 81 95 100 100 100 100 100 100 100 100 100 100 100 100 99 100
100 96 30 31 6 5 5 5 5 9 47 18 26 20 30 97 96 90 100 100 100 100 100 100 100 100 100 100 100 100 100 100 100
100 97 100 93 65 5 5 5 5 5 24 23 13 20 6 34 89 100 100 100 100 100 100 100 100 100 100 100 100 100 100 100 100
99 100 100 29 5 5 5 54 46 91 90 96 100 100 100 74 66 100 100 100 100 100 100 100 100 100 100 100 100 100 100 100 100
77 96 29 47 81 25 27 45 78 58 62 100 100 100 100 100 100 100 100 100 100 100 100 100 100 100 100 100 100 100 100 100 100

GFSFLT1_prec_cloud_078.txt.gz
Cloud_Cover
12 16 70 100 100 100 82 19 58 86 5 2 5 5 4 0 2 7 3 100 93 99 77 99 8 77 16 31 24 30 26 6 0
5 27 15 23 9 21 61 5 3 5 2 5 5 0 0 0 0 33 23 0 70 98 4 46 100 100 100 100 64 88 31 63 72
22 83 36 29 72 5 36 5 5 5 5 5 0 0 0 0 0 0 0 0 17 11 2 1 36 76 93 93 100 100 100 96 98
9 5 45 13 5 19 5 6 5 5 2 0 0 0 0 0 0 0 0 0 65 14 0 0 9 13 5 1 0 1 10 33 91
5 4 14 1 4 6 4 2 0 0 0 0 0 0 0 0 0 0 0 0 44 5 1 0 3 0 0 0 0 0 0 0 0
2 0 9 0 32 1 0 0 0 0 0 0 0 0 0 0 0 0 0 0 8 4 0 0 0 0 0 0 0 0 1 5 5
0 0 0 0 0 0 0 0 0 0 0 0 0 0 0 0 0 0 0 0 4 5 0 0 0 0 0 0 0 5 5 5 5
0 1 8 3 0 0 0 0 1 0 0 0 1 0 0 0 0 0 0 1 1 0 0 0 0 0 0 5 2 5 5 5 6
0 11 6 8 6 3 1 22 5 2 0 4 0 0 0 0 3 5 5 5 5 4 0 0 0 0 0 5 5 5 5 85 87
2 4 7 6 6 5 11 17 14 5 5 0 0 1 0 5 5 8 5 2 0 0 0 0 4 5 5 5 5 5 5 98 100
5 2 3 10 7 5 1 5 6 5 4 4 4 3 5 5 5 3 0 0 0 0 0 5 5 5 26 43 92 5 68 100 100
5 5 0 0 4 0 0 2 4 5 5 5 5 3 5 5 0 0 3 0 0 0 1 5 5 99 23 98 93 73 100 100 100
5 5 5 4 4 5 5 5 14 5 4 0 2 5 0 0 0 0 8 3 0 2 5 98 92 100 100 100 100 86 100 100 100
5 5 5 5 5 10 6 96 6 5 4 5 5 0 0 1 5 2 2 4 3 10 47 100 100 100 100 100 99 100 100 100 100
10 12 34 53 80 98 100 100 89 31 5 17 5 5 5 5 5 3 5 6 73 100 100 100 100 100 100 100 100 100 100 100 100
63 49 63 84 100 100 100 97 57 95 44 8 5 5 10 9 5 5 74 100 100 100 100 100 100 100 100 100 100 100 100 100 100
80 100 92 99 100 94 52 100 100 94 12 61 90 87 25 38 14 53 75 98 100 91 100 100 100 100 100 100 100 100 100 100 100
83 72 81 100 71 88 90 41 84 100 100 100 75 80 29 7 5 17 25 5 30 69 100 100 100 100 100 100 100 100 100 100 100
100 100 100 100 100 73 79 100 100 100 100 31 66 33 5 38 25 5 5 35 64 97 100 100 100 100 100 100 100 100 100 100 100
100 100 99 100 61 61 100 100 100 100 100 98 99 58 83 100 100 100 100 21 32 95 100 100 100 100 100 100 100 100 100 100 100

GFSFLT1_prec_cloud_081.txt.gz
Cloud_Cover
0 0 0 4 6 8 54 10 72 74 27 10 6 5 5 5 0 3 53 0 89 100 84 91 81 26 71 18 32 7 2 0 6
0 0 0 0 3 5 5 60 5 5 27 14 5 5 5 4 0 0 0 0 49 64 5 30 100 100 100 91 44 97 95 59 14
0 0 4 3 5 6 52 97 46 5 6 5 5 5 4 0 0 0 0 0 11 2 0 2 13 87 100 100 100 98 95 100 76
0 3 5 9 5 82 73 47 16 5 2 1 2 1 0 0 0 0 0 0 12 5 10 12 7 8 14 11 10 16 32 95 100
0 5 5 5 5 5 5 5 0 0 0 0 0 0 0 0 0 0 0 0 8 15 0 1 5 2 2 6 7 11 9 1 1
5 10 51 13 2 2 0 0 0 0 0 0 0 0 0 0 0 0 0 0 12 1 0 5 0 0 0 0 0 0 0 1 13
0 16 27 14 0 0 0 0 0 0 0 0 0 0 0 0 0 0 0 0 7 0 5 1 0 0 0 0 0 0 1 5 55
0 18 14 5 2 1 0 0 1 0 0 0 0 0 0 0 0 0 0 4 0 2 1 0 0 0 0 0 0 4 6 68 46
0 8 14 21 14 5 4 16 3 0 3 1 0 0 0 0 0 0 5 0 1 5 0 0 0 0 0 0 3 7 36 91 100
0 3 16 24 17 7 12 13 17 5 4 0 4 1 2 4 2 7 0 0 4 2 0 0 0 0 11 4 5 34 100 100 100
0 4 11 13 14 6 5 11 13 8 1 2 3 5 5 0 0 4 0 0 0 0 0 0 3 3 2 37 75 100 100 100 100
0 0 8 5 12 5 4 1 4 0 0 2 5 5 5 3 5 5 5 4 5 0 0 0 5 13 96 100 100 100 100 100 100
3 4 5 5 5 8 6 5 5 2 5 7 12 30 5 11 5 5 4 13 5 2 5 5 5 90 100 100 100 100 100 100 100
5 37 8 11 5 5 5 5 5 6 61 9 14 5 74 14 5 2 5 5 7 6 5 5 13 24 48 100 100 100 100 100 100
42 56 25 5 14 14 22 6 14 86 20 5 9 69 9 5 15 12 6 5 6 19 5 5 5 67 60 96 100 100 98 100 100
63 22 5 5 5 5 67 96 100 84 29 35 5 41 13 45 5 7 100 19 48 6 95 100 94 85 100 91 100 100 100 100 100
15 17 37 9 18 86 100 100 100 100 77 100 100 100 84 88 18 60 12 52 5 22 52 30 62 99 72 100 100 100 100 100 100
100 100 95 100 100 100 100 100 100 100 69 47 89 100 100 90 64 11 44 5 4 5 5 7 32 25 87 100 100 100 100 100 100
100 100 100 100 100 100 99 100 63 74 100 100 100 100 100 100 98 100 32 21 59 96 100 100 97 71 99 100 100 100 100 100 100
100 100 100 100 100 100 100 100 100 77 97 76 82 89 48 100 100 100 87 46 23 44 45 87 94 81 97 100 100 100 100 100 100

GFSFLT1_prec_cloud_084.txt.gz
Cloud_Cover
11 21 0 0 0 0 1 1 10 8 5 6 5 11 8 5 5 56 29 4 16 100 57 10 14 45 22 10 15 8 0 0 4
1 5 0 0 0 0 0 5 5 10 5 6 82 8 5 5 4 3 1 0 17 3 6 2 13 81 71 50 45 97 67 28 18
0 21 1 0 0 4 4 21 8 5 5 27 18 5 5 4 0 0 0 0 8 0 0 0 0 91 100 92 93 90 85 87 92
0 4 38 0 3 5 15 5 5 5 5 5 4 0 0 0 0 0 0 0 5 5 6 0 0 1 6 14 17 21 28 58 96
0 0 65 1 3 5 5 5 5 5 0 0 0 0 0 0 0 0 0 0 0 13 0 0 0 0 0 0 0 10 14 3 13
0 0 27 62 1 5 5 4 2 0 0 0 0 0 0 0 0 0 0 0 0 0 0 0 0 0 0 0 0 1 1 15 10
5 5 87 75 5 2 0 0 0 0 0 0 0 0 0 0 0 0 0 0 2 0 0 0 0 0 0 0 0 0 0 18 20
16 20 53 15 2 0 0 0 1 0 0 0 0 0 0 0 0 0 0 0 28 0 0 1 1 0 0 0 0 0 10 18 56
2 26 22 18 22 7 0 12 0 2 2 0 0 0 0 5 0 0 0 0 4 5 5 5 0 1 0 0 0 4 5 41 100
5 6 15 24 22 8 4 5 8 2 0 0 1 2 2 0 2 0 0 0 5 6 5 4 3 3 24 3 0 2 17 75 100
9 3 5 21 26 15 3 5 9 6 0 1 5 5 3 4 5 4 3 5 6 15 5 5 5 5 17 28 1 4 35 78 89
13 6 6 8 15 3 7 4 3 8 0 3 5 5 5 5 5 5 5 5 5 5 5 5 5 2 8 27 46 12 11 14 5
67 27 5 5 7 13 14 12 11 12 5 5 5 5 5 5 5 5 9 5 6 5 3 4 5 5 5 15 99 84 2 18 93
14 5 6 67 62 31 8 7 5 5 5 5 5 5 18 5 5 5 5 5 5 15 5 5 5 5 5 10 48 100 93 8 45
100 97 100 100 96 73 19 5 5 5 5 42 7 7 13 23 5 5 5 5 5 22 5 14 5 5 5 5 67 83 81 96 100
100 100 100 100 87 52 49 14 13 5 5 5 5 66 100 28 6 7 5 5 56 45 38 9 5 5 5 5 58 88 100 98 100
100 100 94 20 89 100 11 5 17 18 9 93 100 100 100 100 49 80 13 100 92 64 20 5 18 63 82 100 100 100 100 100 100
100 86 98 88 72 25 20 21 93 100 100 100 96 100 100 100 100 98 99 83 39 5 5 29 16 72 78 100 100 100 100 100 100
100 100 97 100 86 93 98 100 100 100 100 100 100 73 92 100 97 100 100 82 12 95 100 55 86 97 99 100 90 90 100 100 100
100 100 100 100 100 100 100 100 100 100 100 100 98 96 92 100 100 100 100 93 100 29 6 92 51 99 43 80 49 100 100 100 98

GFSFLT1_prec_cloud_087.txt.gz
Cloud_Cover
32 0 0 0 0 0 0 0 0 0 3 9 4 5 5 6 56 5 5 21 57 24 0 0 15 14 9 28 31 2 11 0 7
11 0 0 0 0 0 0 4 2 5 5 1 5 5 5 5 5 4 0 8 0 0 0 0 0 0 64 18 24 54 25 30 32
23 8 0 0 0 2 1 5 5 5 5 5 5 5 5 4 0 0 0 0 0 0 0 0 1 0 11 37 28 30 75 78 84
13 19 3 0 3 5 5 5 5 5 5 5 2 1 0 0 0 0 0 0 1 1 5 5 0 0 1 3 14 14 8 6 12
5 51 79 5 5 1 0 0 5 5 5 4 0 0 0 0 0 0 0 3 0 0 2 5 0 0 0 5 9 3 5 1 8
5 9 100 99 6 0 0 5 5 1 5 0 0 0 0 0 0 0 0 1 2 5 5 5 1 0 5 2 1 0 7 9 15
4 6 65 78 5 4 1 2 1 0 0 0 0 0 0 0 0 0 0 1 5 5 3 5 5 5 5 5 1 3 9 14 10
0 0 98 94 7 5 5 2 0 0 0 0 0 0 0 0 0 0 0 5 5 5 5 5 5 5 5 1 0 0 2 3 1
0 0 3 16 13 4 0 0 0 0 0 0 0 0 0 0 0 0 0 3 8 12 5 5 5 5 4 0 0 0 0 0 0
2 0 4 10 15 0 0 0 0 0 0 0 0 0 0 0 0 0 0 5 5 8 6 5 5 5 8 0 0 0 0 0 16
5 5 5 5 6 1 5 0 0 0 0 0 0 1 4 1 1 0 4 4 1 5 6 19 6 5 9 33 5 3 22 0 7
14 5 5 5 5 5 5 5 0 0 4 5 5 5 5 5 2 5 5 5 5 5 5 6 18 10 2 38 99 44 6 15 11
47 6 6 5 7 5 5 1 6 6 7 10 6 6 5 5 5 5 5 17 46 5 5 5 5 10 15 31 100 100 66 5 5
30 38 64 36 39 74 40 51 100 99 100 10 34 6 5 5 5 5 52 16 5 28 5 5 10 5 5 6 7 44 37 6 5
10 41 86 99 100 100 100 100 100 100 90 69 20 51 12 5 16 6 5 5 5 5 5 4 7 32 5 5 4 8 90 58 21
60 98 100 100 100 100 100 100 100 100 47 97 97 43 15 90 5 5 8 5 5 5 5 5 37 26 52 65 98 98 100 100 100
100 100 100 100 100 100 100 100 100 99 100 97 87 91 76 6 7 11 5 6 6 5 8 52 99 75 47 87 100 97 100 100 100
100 100 100 100 100 100 100 100 100 100 100 100 94 99 95 100 100 100 100 88 100 61 71 61 84 100 89 100 99 100 100 99 100
100 100 100 100 100 100 92 68 99 100 93 100 35 94 100 100 100 100 100 100 100 100 100 100 46 32 76 44 0 93 100 100 100
100 100 100 100 100 100 100 100 100 64 99 100 99 98 100 100 99 100 100 100 100 100 100 100 100 78 42 41 95 58 100 100 90

GFSFLT1_prec_cloud_090.txt.gz
Cloud_Cover
5 5 5 5 5 0 0 0 0 5 6 11 5 5 5 86 56 65 5 4 0 0 0 26 35 16 18 49 21 16 12 57 28
5 4 0 0 0 1 0 0 0 0 4 6 5 5 5 63 7 0 0 0 0 0 0 0 0 0 7 20 48 87 85 99 58
5 4 0 0 0 0 0 0 0 9 5 5 5 4 5 4 2 0 0 0 0 0 0 0 0 4 5 7 16 12 44 76 47
53 0 0 0 4 3 2 1 4 4 6 5 5 5 0 2 0 0 0 0 0 0 0 0 1 5 5 5 4 0 0 0 3
43 36 21 5 5 5 5 1 3 0 0 2 0 0 5 5 0 1 0 1 0 0 0 0 5 5 5 5 2 0 0 0 0
5 82 100 48 4 5 5 5 0 0 0 0 0 0 0 0 0 9 1 12 0 0 0 0 5 4 5 5 1 0 6 5 4
0 26 100 100 62 3 3 0 0 0 0 1 0 0 0 0 0 17 0 6 7 0 0 4 1 1 5 5 5 0 8 11 11
4 5 100 100 20 63 18 17 8 0 3 5 3 0 0 0 0 0 0 0 0 0 0 0 0 5 5 5 5 4 1 3 5
0 0 6 73 97 100 70 31 27 3 0 0 0 0 0 0 3 0 4 3 5 28 0 0 5 5 5 5 5 0 0 0 0
5 2 4 4 8 1 2 0 2 4 0 0 0 0 5 5 4 5 3 5 2 3 22 10 7 5 5 5 5 0 0 0 17
5 6 5 5 4 3 4 5 4 5 5 3 5 5 5 5 5 5 8 5 0 4 5 20 10 5 6 59 5 0 0 5 3
64 73 83 38 5 54 49 64 38 8 6 54 7 5 98 35 23 30 5 5 8 5 5 5 8 21 12 36 96 45 5 5 5
99 100 92 52 16 69 81 81 86 81 47 89 100 100 89 99 48 5 5 5 5 5 5 5 5 24 78 12 33 31 5 2 0
73 78 98 100 100 96 80 44 28 96 100 100 100 100 98 60 93 5 5 5 5 5 5 5 5 5 5 25 34 70 69 5 4
93 41 87 96 87 65 92 81 100 100 100 100 100 100 80 100 15 93 8 5 5 5 5 6 5 5 29 68 24 84 76 81 96
39 71 97 100 66 72 100 100 100 100 100 100 100 100 100 63 98 5 5 5 5 5 5 5 5 39 6 8 56 80 52 37 100
100 100 100 100 100 100 100 100 100 100 100 100 100 100 100 100 33 18 5 5 6 26 6 8 40 72 23 100 89 100 16 5 87
100 100 100 100 100 100 100 100 100 100 100 100 100 100 100 99 100 100 84 16 72 48 89 86 100 75 98 46 100 100 18 41 100
100 100 100 100 100 100 100 100 100 100 100 100 100 100 100 100 100 100 100 100 100 100 100 100 100 100 99 28 100 42 9 3 88
100 100 100 100 100 100 100 100 100 100 100 100 100 100 100 100 100 100 100 76 100 100 100 100 100 97 93 81 100 55 100 100 70

GFSFLT1_prec_cloud_093.txt.gz
Cloud_Cover
20 60 59 5 41 18 5 7 6 11 9 12 0 0 31 91 14 9 6 5 5 0 6 0 9 48 71 96 77 67 71 52 99
5 5 5 5 5 5 4 3 1 4 7 6 2 5 5 5 8 5 5 5 0 0 0 0 8 6 1 8 7 27 48 77 34
5 5 4 4 4 4 5 3 1 2 3 2 5 5 5 5 5 5 5 5 0 0 0 0 0 0 0 0 2 6 0 1 9
2 4 0 0 2 0 0 0 0 0 0 0 4 0 5 2 7 20 1 0 0 0 0 0 0 2 2 2 5 4 0 0 4
11 0 0 0 0 0 0 0 0 5 0 2 0 0 0 19 23 5 0 0 0 0 0 0 0 0 0 0 0 0 2 2 5
16 28 1 0 0 2 5 5 3 5 0 0 0 0 12 9 11 10 0 2 0 0 0 0 0 0 0 0 0 0 0 0 0
67 25 99 85 30 2 5 0 5 2 0 2 1 3 0 3 3 6 1 1 0 0 3 1 2 0 0 0 5 0 5 0 2
2 32 100 100 94 24 13 1 5 4 0 0 0 0 0 0 0 0 5 5 21 5 5 5 0 0 0 5 4 3 3 0 3
0 8 38 100 82 100 73 30 25 6 1 0 3 0 0 0 0 5 5 41 48 34 18 5 2 0 5 5 2 0 0 0 10
5 3 18 26 28 33 22 7 23 16 4 0 1 3 5 5 5 20 100 100 46 15 70 5 1 5 4 4 1 0 0 3 10
7 24 62 40 10 9 11 5 5 5 5 5 5 5 5 5 20 79 100 92 6 99 100 19 23 2 1 54 3 0 0 5 5
60 64 89 52 17 68 71 70 76 43 18 27 70 97 66 5 88 100 84 100 99 85 5 1 10 27 29 32 8 0 5 5 5
58 71 43 10 49 87 100 92 86 88 100 100 34 5 25 100 100 100 64 100 98 42 5 5 2 5 6 15 34 75 5 5 5
39 81 88 73 37 66 74 100 100 100 83 32 27 82 100 100 99 93 100 57 18 36 5 0 3 4 5 5 5 36 100 89 47
71 56 51 31 82 96 47 38 80 100 100 68 95 100 100 95 100 96 91 56 11 5 5 5 4 5 5 5 5 5 37 92 94
100 100 100 98 42 5 6 5 5 41 94 100 100 100 100 100 100 64 28 48 5 5 5 5 5 6 5 5 5 5 5 5 98
100 100 100 100 100 100 100 100 97 100 100 100 100 100 100 100 88 36 93 6 26 5 5 5 44 77 32 11 97 31 91 58 15
100 100 100 100 100 100 100 100 100 100 100 100 100 100 100 100 100 100 100 86 16 5 5 5 6 63 10 53 86 41 38 99 89
100 100 100 100 100 100 100 100 100 100 100 100 100 100 100 100 100 100 100 100 74 35 56 5 57 15 24 74 12 100 100 100 56
100 100 100 100 100 100 100 100 100 100 100 100 100 100 100 100 100 100 84 100 100 100 31 33 17 7 98 82 64 46 68 100 48

GFSFLT1_prec_cloud_096.txt.gz
Cloud_Cover
5 5 5 13 13 5 7 6 0 14 1 0 0 0 1 5 3 5 5 5 3 5 6 89 100 100 72 98 79 99 100 91 99
28 11 5 5 5 8 5 4 1 13 0 0 0 0 4 5 5 5 5 2 0 4 0 0 1 18 20 21 53 33 51 63 1
19 37 5 4 3 0 0 1 0 0 0 0 0 0 0 5 0 0 2 0 0 0 0 0 0 0 0 0 2 3 0 0 2
0 4 4 1 4 2 0 11 0 0 0 0 0 0 0 0 0 0 0 0 0 0 1 5 2 0 0 0 0 0 0 0 5
0 0 3 5 4 0 0 0 0 0 0 0 0 0 0 4 0 0 0 0 0 4 5 4 5 5 0 5 0 0 0 0 0
0 0 0 0 0 0 0 0 0 0 1 2 0 3 0 0 1 5 5 0 2 5 5 6 35 5 5 5 0 0 0 0 0
7 0 5 0 0 0 0 0 0 0 2 0 0 3 0 0 0 0 0 0 0 5 5 100 100 39 5 4 5 0 0 0 0
100 3 44 0 1 0 0 0 0 0 5 0 0 5 5 4 0 0 0 5 8 5 22 100 82 5 13 3 0 0 0 2 0
0 0 0 9 48 36 0 1 4 5 5 5 5 5 5 5 3 5 5 7 10 24 100 100 8 64 44 0 0 0 0 12 1
0 0 0 0 2 3 2 11 35 5 5 5 5 5 5 5 5 5 88 48 54 100 100 100 69 48 2 1 1 0 0 0 1
0 0 1 5 34 5 14 55 46 14 31 13 6 5 5 5 28 100 7 82 100 100 100 100 16 5 5 0 0 0 0 0 5
5 5 5 5 5 5 52 63 62 33 62 87 7 5 5 76 16 5 38 44 100 100 100 8 10 35 22 43 1 0 1 1 0
5 5 5 16 53 52 39 52 52 66 93 42 8 12 18 5 6 35 100 100 100 100 100 5 10 1 5 37 56 92 18 1 1
29 88 85 73 36 22 31 25 5 5 11 6 10 5 5 6 28 91 100 100 100 100 98 79 10 5 5 4 5 30 100 100 100
100 100 100 100 100 100 99 53 5 17 5 12 5 4 5 5 9 36 95 85 99 28 57 17 12 10 5 5 5 3 4 99 86
100 100 100 100 100 100 100 100 100 100 100 99 100 100 100 100 98 100 81 72 92 6 49 37 98 51 75 61 31 5 5 5 15
100 100 100 100 100 100 100 100 100 100 100 100 100 100 87 82 100 100 17 60 14 6 11 94 55 73 49 27 26 100 100 38 5
100 100 100 100 100 100 100 100 100 100 100 100 93 94 98 100 100 100 100 92 91 92 81 52 8 74 50 100 97 100 75 6 48
100 100 100 100 100 100 100 100 100 99 90 100 95 96 100 100 100 100 100 98 100 96 40 12 75 70 81 94 80 21 9 5 8
100 100 100 100 100 100 100 100 100 100 100 100 100 100 100 100 100 100 100 100 100 79 49 100 95 99 100 52 83 86 5 7 10

GFSFLT1_prec_cloud_099.txt.gz
Cloud_Cover
38 5 5 0 5 5 5 43 40 4 0 0 0 0 0 0 0 0 0 3 0 0 1 32 100 100 100 100 100 34 0 0 0
5 74 81 16 19 5 5 5 5 0 5 3 0 0 0 0 0 0 0 0 0 0 0 0 0 2 14 64 58 15 0 0 0
0 5 5 5 9 7 36 6 3 5 3 0 0 0 0 0 0 0 0 0 0 0 0 0 0 0 0 5 8 5 0 1 0
2 5 5 5 0 5 5 5 5 0 0 0 0 0 0 0 0 0 0 0 0 0 0 0 0 0 0 46 9 5 5 5 0
0 0 0 4 5 5 0 0 0 0 0 0 0 0 0 0 0 0 0 0 0 0 0 0 0 0 22 71 60 5 5 0 0
0 0 0 0 0 0 0 0 0 0 0 0 0 0 0 0 0 0 0 0 0 0 0 3 5 5 65 46 17 53 1 0 0
0 0 0 0 0 0 0 0 0 0 0 0 0 0 4 4 0 1 5 5 0 5 5 5 4 74 86 5 39 0 0 0 0
0 20 10 3 0 0 0 0 0 0 0 0 5 5 5 5 5 0 4 5 5 5 59 5 5 25 22 36 5 0 0 0 2
78 14 13 14 8 6 0 0 0 0 4 5 5 10 5 5 5 5 5 5 5 89 5 5 5 5 5 6 4 0 0 0 9
4 5 7 0 0 1 0 0 5 5 5 6 5 5 5 5 5 5 5 5 78 47 5 5 5 5 8 5 2 0 0 0 5
5 5 5 4 2 0 0 2 5 5 5 6 5 7 5 37 11 11 53 80 99 51 81 26 10 29 5 5 3 4 0 0 0
42 13 19 30 6 8 5 5 5 5 5 5 5 5 10 99 33 5 10 10 21 91 5 6 68 45 44 93 5 5 0 0 0
100 96 6 36 11 40 82 10 35 5 7 10 5 5 0 0 0 3 3 4 5 5 41 100 18 5 5 50 95 99 19 16 7
100 100 82 95 96 99 86 99 32 5 14 8 6 56 50 38 36 9 80 99 57 80 100 98 5 5 40 9 8 8 92 100 100
63 100 100 100 100 100 100 100 100 68 80 62 100 100 57 100 90 100 100 96 35 99 17 5 32 75 94 100 89 8 5 84 88
44 94 100 100 100 100 100 100 100 100 100 100 100 100 100 100 100 99 12 22 100 92 6 5 6 38 62 18 49 5 70 63 8
98 100 100 100 100 100 100 100 100 100 100 100 98 98 87 92 71 85 8 76 80 100 9 6 13 10 7 5 26 99 47 92 62
100 100 100 100 100 100 100 100 100 100 100 100 100 93 93 93 40 24 76 97 100 97 8 5 92 83 5 23 82 96 93 8 50
100 100 100 100 100 100 100 100 100 100 100 100 100 100 91 79 99 100 100 100 100 86 6 19 10 17 39 100 28 20 92 49 71
100 100 100 100 100 100 100 100 100 100 100 100 100 100 100 100 100 100 100 99 100 66 26 93 96 100 72 100 100 100 100 39 5

GFSFLT1_prec_cloud_102.txt.gz
Cloud_Cover
5 5 5 5 3 36 13 5 5 5 5 0 4 1 3 0 0 0 0 0 0 0 0 58 100 100 100 96 83 0 5 5 3
0 5 5 5 5 5 5 5 4 5 4 4 4 3 0 0 0 0 0 0 0 0 0 0 0 0 0 0 0 0 5 5 5
0 19 8 4 5 6 5 5 1 0 0 0 0 0 0 0 0 0 0 0 0 0 0 0 0 0 0 0 0 5 11 5 0
0 2 0 0 1 12 11 4 0 0 0 0 0 0 0 0 0 0 0 0 0 0 0 0 0 0 0 0 1 5 4 5 0
0 0 0 0 0 0 0 0 3 0 0 0 0 0 0 0 0 0 4 3 0 0 0 0 0 0 5 4 3 5 5 5 0
0 0 0 0 0 0 0 0 0 0 0 0 0 0 0 0 5 0 0 0 0 2 0 0 4 2 5 5 4 4 5 5 5
0 0 0 0 0 0 0 0 0 0 0 0 0 0 0 0 5 5 3 5 3 0 0 0 1 5 4 5 5 5 5 0 3
8 17 6 0 0 5 0 0 0 0 0 0 0 0 0 0 2 5 5 0 0 5 5 4 5 5 5 5 5 4 3 5 0
28 26 13 5 7 2 0 0 0 0 0 0 0 5 5 5 5 5 0 5 5 5 5 5 5 3 5 5 5 4 2 5 6
43 28 27 14 9 4 1 0 0 0 0 0 0 2 5 5 5 5 4 5 5 5 4 0 0 0 4 5 5 5 3 1 2
54 96 37 13 14 5 5 5 5 5 5 1 0 4 5 5 5 2 0 4 1 0 10 31 5 5 5 5 5 2 2 5 5
94 100 100 100 61 28 54 16 5 5 5 5 5 5 5 3 0 5 5 84 95 84 5 89 98 70 67 81 27 5 0 2 0
61 32 44 95 100 93 99 62 70 30 20 5 5 5 4 5 4 5 100 100 99 75 54 18 77 32 7 7 42 80 90 64 17
9 53 26 12 65 100 100 99 100 100 100 100 100 91 5 5 4 90 100 85 31 91 98 32 59 5 5 7 16 4 67 100 100
89 90 97 100 100 100 100 100 100 100 100 100 100 95 99 91 51 100 56 94 6 48 97 74 5 8 6 5 5 4 4 57 93
100 85 100 100 100 100 100 100 100 100 100 100 100 100 62 14 5 9 5 5 43 100 18 79 36 34 5 17 5 4 12 10 57
100 96 100 100 100 100 100 100 100 100 100 97 96 100 95 98 87 71 98 100 83 100 100 100 8 20 28 12 21 100 31 82 99
100 100 100 100 100 100 100 100 100 100 100 100 100 98 76 60 96 84 61 47 100 71 100 97 71 100 59 79 100 98 100 11 28
100 100 100 100 100 100 100 100 100 100 100 100 100 100 100 100 100 98 95 91 71 100 100 92 83 95 15 100 100 100 100 100 100
100 100 100 100 100 100 100 100 100 100 100 100 100 100 100 100 100 100 100 64 100 100 100 100 100 100 100 100 100 100 100 100 100

GFSFLT1_prec_cloud_105.txt.gz
Cloud_Cover
0 0 0 0 5 5 5 13 5 1 0 5 3 0 0 0 0 0 0 0 0 0 0 0 5 0 0 0 0 0 0 0 1
0 0 0 0 0 2 17 4 4 0 0 0 0 0 0 0 0 0 0 0 0 1 0 0 0 0 0 0 0 0 4 0 0
0 3 0 0 2 5 4 0 0 0 0 0 0 0 0 0 0 0 0 0 0 0 5 2 0 0 0 0 0 1 5 1 0
66 5 0 15 30 7 8 0 0 0 0 0 0 0 0 0 0 0 0 0 0 0 1 0 0 0 0 0 0 4 2 5 5
0 0 0 0 0 4 0 0 0 0 0 0 0 0 0 0 0 0 0 0 4 1 0 0 0 0 0 4 1 5 0 0 3
0 0 0 0 0 0 0 0 0 0 0 0 0 0 0 0 0 0 0 0 2 5 4 0 0 0 0 4 1 0 0 5 0
6 3 0 0 0 0 0 0 0 0 0 0 0 0 0 0 0 0 0 0 2 0 0 0 0 0 1 5 2 0 3 2 0
32 32 25 8 0 1 0 0 0 0 0 0 0 0 0 0 0 0 0 0 0 0 0 0 0 0 0 17 5 5 5 5 3
27 31 18 4 6 2 5 1 0 0 0 0 0 0 0 0 0 0 0 0 0 0 0 0 1 0 2 5 5 32 12 5 6
22 14 79 12 16 7 16 5 5 5 5 5 4 2 5 4 0 0 0 0 0 0 0 5 4 2 4 5 7 14 51 5 1
80 96 100 100 24 23 100 100 15 23 5 5 6 5 5 5 5 2 0 0 0 3 19 25 8 9 5 1 20 5 9 16 5
100 100 76 57 42 54 30 100 100 99 93 83 39 6 5 13 5 5 2 0 0 2 8 11 12 50 100 99 63 10 5 5 5
100 100 100 53 36 46 100 91 98 100 100 100 100 99 100 100 98 11 5 12 17 5 16 97 6 5 5 5 9 48 100 100 47
100 100 100 100 100 98 94 100 100 100 100 100 100 100 100 100 100 100 63 18 3 5 9 12 75 5 5 5 23 21 19 100 100
100 100 100 100 100 100 100 94 100 100 100 100 100 100 99 100 100 72 5 5 5 37 87 45 86 92 82 27 5 5 27 18 65
100 100 100 100 100 100 100 100 100 100 100 100 100 100 97 16 98 87 52 65 96 97 100 100 100 100 6 47 58 5 5 5 9
100 100 100 100 100 97 100 100 100 100 100 100 100 100 87 91 39 64 11 18 74 100 98 11 93 100 69 15 35 49 66 76 48
100 100 100 100 100 100 100 100 100 100 100 100 100 100 100 92 99 92 74 90 100 95 76 91 26 100 82 85 97 78 100 100 100
100 100 100 100 100 100 100 100 100 100 100 100 100 100 100 100 100 100 100 100 98 99 99 100 87 100 100 100 100 100 100 100 100
100 100 100 100 100 100 100 100 100 100 100 100 100 100 100 100 100 100 100 100 100 100 100 100 100 100 100 100 100 100 100 100 100

GFSFLT1_prec_cloud_108.txt.gz
Cloud_Cover
0 0 0 0 0 0 5 0 0 2 2 0 0 0 0 0 0 0 0 0 0 0 0 0 0 0 0 0 0 0 0 2 5
0 0 0 0 0 0 0 0 0 0 0 0 0 0 0 0 0 0 0 0 0 0 0 0 0 0 0 0 0 1 5 4 6
0 0 0 0 0 2 0 0 0 0 0 0 0 0 0 0 0 0 0 0 0 0 0 4 3 0 0 0 2 5 3 1 3
0 0 0 0 14 0 0 0 0 0 0 0 0 0 0 0 0 0 0 0 0 0 0 0 0 0 0 2 49 5 5 3 7
0 0 3 8 0 0 0 0 0 0 0 0 0 0 0 0 0 0 0 0 0 0 0 0 0 0 0 5 5 2 5 47 30
0 0 60 22 0 0 0 0 0 0 0 0 0 0 0 0 0 0 0 0 0 0 0 0 0 0 3 5 4 5 5 15 52
2 0 0 0 0 0 0 0 0 0 0 0 0 0 0 0 0 0 0 0 0 0 0 0 0 0 2 4 5 5 5 6 5
37 38 33 19 4 16 1 0 0 0 0 0 0 0 2 0 1 0 0 0 0 0 0 0 0 0 0 5 5 5 5 5 2
46 41 29 18 13 5 5 5 5 5 5 3 5 1 0 0 1 0 4 0 0 0 0 0 0 0 0 5 5 5 5 4 0
44 50 36 16 30 6 17 55 12 6 14 5 5 5 5 2 2 4 0 0 0 0 0 0 4 5 3 5 2 2 3 5 5
100 100 95 100 64 75 66 20 8 6 5 5 5 5 11 5 5 4 4 5 5 1 20 18 14 8 12 5 3 5 5 5 5
100 100 100 100 100 70 72 94 16 5 24 73 96 37 53 8 14 13 80 100 22 5 5 4 11 46 50 80 78 37 25 16 84
100 96 77 99 100 100 100 100 93 6 24 53 65 99 100 100 94 99 98 44 54 4 1 4 1 5 5 5 5 43 94 100 98
100 100 100 100 100 100 100 100 96 62 98 100 100 100 100 100 91 100 97 46 33 35 5 5 4 1 4 6 5 13 53 44 74
100 100 100 100 100 100 100 100 100 98 100 100 100 100 96 99 76 80 9 27 5 5 43 100 100 99 96 5 5 5 5 37 4
100 100 100 100 99 78 100 100 100 100 100 100 100 100 100 100 100 98 71 62 37 5 64 93 78 67 85 36 5 6 7 5 22
100 100 100 100 100 100 100 100 100 100 100 100 100 100 100 90 97 88 23 67 81 62 97 57 99 39 96 90 29 99 50 97 100
100 100 100 100 64 100 100 100 100 100 100 100 100 100 100 100 100 100 100 100 66 100 100 99 98 95 90 93 98 99 100 98 97
100 100 99 98 98 100 100 100 100 100 100 100 100 100 100 100 100 100 100 100 100 100 100 100 100 100 100 56 94 100 100 100 98
100 99 100 100 100 100 100 100 100 100 100 100 100 100 100 100 100 100 100 100 100 100 100 100 100 100 100 100 100 100 100 100 100

GFSFLT1_prec_cloud_111.txt.gz
Cloud_Cover
7 0 0 0 0 0 0 0 0 0 0 0 0 0 0 0 0 0 0 0 0 0 0 0 0 0 0 0 2 1 3 18 5
0 0 4 2 0 0 0 0 0 0 0 0 0 0 0 0 0 0 0 0 0 0 0 0 0 0 0 0 0 0 5 60 27
0 0 26 0 0 0 0 0 0 0 0 0 0 0 0 0 0 0 0 0 0 0 0 0 0 0 0 0 1 1 1 5 75
0 0 0 0 0 0 0 0 0 0 0 0 0 0 0 0 0 0 0 0 0 0 1 0 0 0 0 0 0 0 2 5 100
0 0 0 2 0 0 0 0 0 0 0 0 0 0 0 0 0 0 0 9 2 0 0 1 0 0 0 0 0 4 5 5 0
6 2 75 100 6 0 0 0 0 0 0 0 0 0 0 0 0 0 0 0 0 0 0 0 0 1 0 0 0 2 4 4 2
6 34 99 40 2 5 4 0 0 0 0 0 0 0 0 0 0 0 0 0 0 0 0 0 1 0 2 0 0 0 5 5 16
51 54 46 37 12 10 5 5 5 3 0 0 0 0 0 0 0 0 0 0 0 0 0 0 1 0 0 1 0 1 5 5 5
72 62 59 21 5 5 5 5 5 5 5 5 0 0 4 5 2 0 0 0 0 0 0 0 0 0 0 5 5 5 5 5 2
84 80 33 91 73 10 5 5 5 5 10 38 5 5 1 5 5 6 5 5 1 0 3 5 3 1 0 5 5 5 5 3 4
100 100 100 100 100 100 100 81 5 5 5 5 5 5 5 5 10 9 4 5 5 5 20 29 11 5 3 5 5 5 5 0 0
100 93 64 100 100 100 94 68 100 100 96 99 100 63 5 5 5 9 41 5 5 5 0 5 2 8 9 24 5 5 2 0 2
100 98 94 100 100 100 57 97 100 100 100 97 98 26 26 5 16 17 16 5 5 5 0 0 1 0 2 10 3 19 7 6 12
100 100 100 100 100 100 100 100 100 100 100 100 100 100 100 100 72 98 50 20 27 5 5 5 1 0 0 0 0 0 0 4 29
100 100 100 100 100 100 100 100 100 100 100 100 100 100 100 100 100 99 75 80 5 5 5 2 36 23 5 4 3 3 5 5 3
100 100 100 100 100 100 100 100 100 100 100 100 100 100 100 100 100 100 74 88 18 14 10 51 47 38 88 71 30 5 5 5 5
100 100 100 100 100 100 100 100 99 100 100 100 100 100 100 100 100 100 100 83 100 93 100 80 92 100 100 87 88 5 5 5 13
100 100 100 78 100 90 59 96 100 100 100 100 100 99 94 85 100 100 100 100 100 100 100 100 93 99 100 100 100 87 70 10 52
100 100 95 100 100 100 90 98 100 100 100 100 100 92 100 96 100 100 100 100 100 100 100 83 100 100 100 100 100 99 100 100 100
100 100 100 94 100 100 100 100 100 100 100 100 100 100 100 98 97 100 100 100 100 100 100 100 100 100 100 100 100 100 100 100 100

GFSFLT1_prec_cloud_114.txt.gz
Cloud_Cover
58 14 37 5 5 0 2 0 0 0 3 0 0 0 0 0 0 0 0 0 0 0 0 0 0 0 0 0 1 50 2 17 14
28 32 5 2 0 0 0 0 0 0 0 0 0 0 0 0 0 0 0 0 0 0 0 0 0 0 0 0 1 31 0 12 100
3 10 5 4 0 0 0 0 0 0 0 0 0 0 0 0 0 0 0 0 0 0 0 0 0 0 0 2 4 0 3 47 16
0 5 3 0 0 0 0 0 0 0 0 0 0 0 0 0 0 0 0 0 0 0 0 0 0 0 0 1 5 0 5 2 36
5 4 0 0 4 0 0 0 0 0 0 0 0 0 0 0 0 0 0 9 1 0 3 2 0 0 0 2 0 5 5 5 5
11 33 0 5 3 0 0 0 0 0 0 1 0 0 0 0 0 0 0 1 0 1 8 5 2 1 3 2 4 7 5 5 6
45 65 94 3 1 0 0 0 0 0 0 2 0 0 0 0 0 0 0 0 0 0 0 0 0 2 0 0 5 3 5 5 5
57 98 100 30 12 0 0 0 0 0 0 0 0 0 3 0 0 0 0 0 0 0 2 0 0 0 0 3 5 3 3 0 0
91 100 100 100 5 5 5 0 2 0 0 3 2 3 0 0 0 0 0 0 0 0 0 4 2 0 3 5 2 1 0 0 0
100 98 46 30 69 82 40 91 19 10 14 6 5 5 4 18 14 11 4 0 0 5 4 5 4 4 5 4 2 4 0 0 0
100 98 76 88 100 100 100 100 100 95 85 33 92 96 100 61 78 63 3 1 0 6 26 15 4 2 3 4 2 0 0 0 0
63 72 98 98 100 100 99 72 93 100 100 11 59 76 83 97 75 96 99 43 60 69 7 16 13 9 22 15 0 0 0 0 0
76 95 100 100 100 95 99 100 100 100 100 91 99 100 100 100 100 100 65 100 87 28 29 2 0 2 1 9 17 43 0 0 0
100 100 100 100 100 100 100 100 100 100 100 100 100 100 96 49 13 85 66 98 59 32 5 5 3 0 3 5 4 5 1 1 4
78 100 100 100 100 100 100 100 100 100 100 100 100 100 81 100 45 61 93 87 26 75 38 6 4 5 5 62 90 64 8 5 98
100 100 100 100 100 100 100 100 100 100 100 100 100 83 100 56 100 98 30 74 86 100 69 51 35 49 40 37 100 100 100 58 71
100 100 100 100 100 100 100 100 100 100 99 100 96 85 45 10 5 23 98 79 67 100 76 100 73 75 100 100 100 100 100 98 90
100 100 100 100 100 100 100 89 100 97 96 100 92 66 51 27 13 5 83 100 100 100 97 86 100 100 99 100 100 100 100 100 100
100 100 100 100 94 100 100 94 58 99 90 100 100 100 87 100 100 49 58 73 98 100 100 100 100 100 100 100 100 100 100 100 100
100 100 100 100 88 93 99 100 100 100 99 100 100 100 100 100 100 100 100 100 100 100 100 100 100 100 100 100 100 100 100 100 100

GFSFLT1_prec_cloud_117.txt.gz
Cloud_Cover
31 26 70 64 5 62 27 10 72 33 21 0 0 0 0 0 0 0 0 0 0 0 0 0 0 0 0 2 0 29 49 100 100
1 5 24 24 5 4 2 5 0 0 0 0 0 0 0 0 0 0 0 14 0 0 0 1 0 0 0 0 4 12 18 100 92
0 0 4 5 0 3 3 0 0 0 0 0 0 0 0 0 0 0 2 2 0 0 0 0 0 0 0 0 0 10 7 6 90
0 0 0 0 0 5 3 0 0 0 0 0 0 0 0 0 0 0 1 0 0 0 0 3 0 0 0 0 0 4 5 9 14
0 0 0 0 3 5 0 0 0 0 0 0 0 0 0 0 0 0 3 2 0 0 5 4 4 2 0 0 5 5 21 6 1
6 3 0 26 3 0 0 0 0 0 0 0 0 0 0 0 5 5 5 5 5 5 3 1 0 0 4 3 5 23 5 5 3
100 34 5 37 5 3 1 0 0 0 0 2 0 0 5 5 5 5 0 5 4 5 4 0 1 0 0 3 5 5 5 5 6
100 89 14 5 13 3 5 0 0 8 6 5 5 5 5 5 5 5 5 5 6 4 3 0 0 0 5 0 4 1 5 0 0
100 27 5 6 5 3 0 0 2 5 8 52 6 13 6 5 8 91 100 88 49 33 0 3 5 2 5 5 0 0 4 0 0
98 97 100 100 100 98 6 8 56 95 100 100 100 99 74 8 46 11 85 80 5 24 100 100 100 99 29 1 4 4 0 0 0
95 100 98 100 100 96 5 78 48 92 100 100 100 100 100 25 19 5 14 79 97 100 32 100 35 5 68 5 4 0 0 0 0
100 37 72 60 20 6 5 5 82 100 100 100 100 100 100 100 100 100 100 100 55 5 7 29 32 33 26 12 0 0 0 0 0
100 100 100 100 5 7 10 90 100 100 100 100 100 100 100 100 100 100 100 48 12 5 5 5 5 14 7 5 9 71 5 5 4
100 100 100 100 44 90 56 100 100 100 100 100 100 100 100 99 100 100 99 53 32 5 8 37 5 5 5 5 16 76 73 51 92
100 100 100 100 73 98 100 100 100 100 100 100 100 98 27 91 100 42 5 5 6 5 31 14 6 5 5 5 26 32 99 100 45
100 100 100 100 100 100 100 100 100 100 100 100 100 18 86 40 31 37 5 5 84 100 58 100 100 70 38 6 100 100 96 100 95
100 100 100 100 100 100 100 100 100 100 100 94 94 100 74 93 78 35 5 5 30 100 94 100 100 100 100 100 100 85 77 100 100
100 100 100 100 100 100 100 93 100 99 100 70 100 92 89 58 49 5 14 51 100 46 64 100 25 95 96 100 100 100 100 100 100
100 100 100 100 100 100 94 100 100 100 100 99 99 70 22 98 99 51 53 100 100 90 59 92 94 97 100 100 86 100 100 100 100
100 100 100 100 100 100 100 100 100 100 100 100 97 100 96 100 100 100 100 40 98 49 6 96 100 100 91 94 100 100 100 100 100

GFSFLT1_prec_cloud_120.txt.gz
Cloud_Cover
0 0 0 3 5 6 5 96 99 64 4 0 0 0 0 0 0 0 0 0 0 0 0 0 0 54 4 5 18 100 100 10 50
0 0 0 5 43 6 15 98 19 1 0 0 0 0 0 0 0 0 0 3 1 3 0 0 2 3 5 23 24 100 100 8 78
0 0 0 0 0 5 5 3 0 0 0 0 0 0 0 0 0 0 0 0 1 5 5 4 5 5 5 5 18 55 52 34 59
0 0 0 0 0 0 0 0 0 1 0 0 0 0 0 0 0 2 5 5 5 5 5 6 5 5 5 0 5 99 10 44 9
0 0 0 0 0 0 0 0 0 0 0 0 0 0 0 1 3 5 5 14 5 5 5 5 3 5 5 39 8 5 1 5 4
5 0 0 3 0 0 0 0 0 0 0 0 0 0 0 5 5 8 5 4 4 5 6 5 2 6 76 97 52 69 1 3 0
0 4 0 0 5 4 3 5 0 0 0 0 0 0 0 4 8 17 5 4 79 45 76 5 5 100 96 100 100 82 53 19 2
5 2 4 1 8 5 4 5 4 3 0 0 0 5 5 5 5 22 5 8 6 59 95 99 99 100 9 100 100 100 100 0 0
5 1 5 5 5 5 5 5 14 20 5 3 18 31 100 94 45 11 5 6 7 79 100 98 100 98 5 6 100 99 25 0 0
6 6 5 8 37 6 63 95 100 77 6 94 100 73 93 92 96 100 100 43 80 100 100 100 43 2 4 4 1 5 4 0 0
99 5 36 78 35 31 69 99 100 100 71 35 50 48 76 100 100 18 100 84 100 100 100 5 5 5 4 2 0 0 5 5 5
81 27 49 89 100 100 73 75 42 50 56 27 67 94 92 83 14 19 88 88 64 97 99 19 29 10 18 7 5 1 3 5 5
68 98 94 100 100 100 100 100 100 74 25 91 100 100 16 5 23 85 5 3 8 5 5 5 42 9 6 14 45 76 20 58 5
90 62 97 100 100 100 100 100 100 100 73 100 100 49 98 95 93 91 16 5 5 4 10 68 87 63 17 22 41 63 51 100 75
100 100 100 100 100 100 100 100 100 100 100 100 100 82 100 85 14 18 5 5 4 5 5 12 80 100 76 44 27 88 98 10 16
100 100 100 100 100 100 100 100 100 100 100 100 100 100 100 65 5 5 1 5 2 3 0 5 5 78 97 76 100 100 100 92 53
100 97 100 100 100 100 100 100 100 100 100 100 100 100 48 5 5 3 4 3 4 5 5 16 11 16 34 58 95 98 100 86 100
100 100 98 99 100 100 100 100 100 100 100 100 100 92 8 48 20 8 5 64 45 42 5 88 65 93 49 89 94 98 38 84 98
100 97 90 100 100 100 100 100 100 100 100 100 95 98 6 58 88 36 21 8 15 22 75 34 65 88 94 13 93 96 39 79 96
100 100 100 100 100 100 100 100 100 100 100 100 100 100 88 84 95 76 7 5 5 5 79 1 68 54 57 100 92 28 5 97 100

GFSFLT1_prec_cloud_123.txt.gz
Cloud_Cover
0 0 0 1 3 0 4 5 2 5 5 5 0 0 0 0 0 0 0 0 48 3 5 53 14 77 12 100 100 5 26 55 15
0 4 0 5 5 4 18 5 4 5 4 0 0 0 0 0 0 0 0 1 0 5 15 34 5 5 52 44 11 5 5 7 95
5 5 0 4 4 16 34 5 0 0 0 0 0 0 0 0 0 0 0 14 1 5 5 5 5 87 87 10 99 89 13 30 5
0 0 0 0 1 5 5 1 0 0 0 0 0 0 0 0 0 0 0 0 5 5 0 0 4 41 5 40 31 61 100 100 57
5 0 0 0 0 0 0 5 0 0 0 1 0 0 0 0 0 0 0 2 0 1 5 5 8 5 41 100 5 32 100 100 100
2 2 0 0 0 0 5 5 5 2 0 5 4 1 0 0 0 5 3 5 4 5 5 4 96 57 90 5 5 5 86 100 94
10 5 5 0 2 5 5 5 56 6 3 5 5 5 5 1 2 5 5 6 4 4 6 2 68 63 94 62 5 0 0 0 0
42 35 10 3 5 5 5 6 5 61 41 15 12 5 5 73 32 83 16 5 21 50 3 88 63 67 83 47 0 0 0 0 2
100 58 51 20 22 52 17 5 8 76 71 98 84 37 79 100 100 65 6 5 25 7 100 88 24 96 48 5 2 1 0 0 1
94 94 47 29 11 56 76 71 94 96 88 100 100 100 54 86 64 40 5 6 31 7 5 5 5 5 4 1 0 4 1 1 5
81 75 67 74 70 40 27 100 89 88 59 54 93 68 44 49 73 73 50 8 4 5 5 5 2 5 5 5 5 5 5 5 5
64 78 100 100 100 60 44 100 100 100 100 100 100 100 95 50 80 96 96 8 5 1 28 78 10 16 49 7 5 5 8 93 99
100 100 100 100 100 100 100 100 100 100 99 100 85 88 96 95 100 100 100 30 100 100 12 5 7 10 58 7 91 56 100 100 36
100 100 100 100 100 100 100 100 100 80 97 98 100 93 100 100 100 100 100 100 100 22 3 0 5 64 52 24 5 45 93 94 99
100 100 100 100 100 100 100 100 100 100 98 100 100 100 100 100 100 100 100 100 84 5 2 4 5 10 72 100 89 73 46 96 63
100 100 100 100 100 100 100 100 80 79 100 100 100 87 100 100 100 100 100 59 5 2 0 3 4 5 83 100 44 44 66 100 95
100 100 100 100 100 100 100 100 100 100 100 100 100 100 100 100 59 94 57 5 5 5 4 4 1 9 16 25 81 100 67 78 100
100 100 100 100 100 100 100 100 100 100 100 100 100 100 100 100 92 28 5 5 4 2 0 3 5 5 4 96 83 38 24 60 28
100 100 100 100 100 100 100 100 100 100 100 100 100 100 100 100 100 11 5 52 3 0 0 0 1 5 21 8 8 36 5 13 39
100 100 100 100 100 100 100 100 100 100 100 100 100 100 100 100 92 16 7 31 5 4 1 0 5 3 5 5 10 78 5 30 67

GFSFLT1_prec_cloud_126.txt.gz
Cloud_Cover
0 12 0 0 5 5 5 12 0 0 5 2 0 0 0 0 0 0 0 11 98 100 1 98 93 66 6 18 85 85 53 14 99
7 6 0 0 1 5 5 3 0 0 0 0 0 0 0 0 0 0 2 28 17 20 0 0 40 7 8 51 67 15 99 100 100
4 1 0 0 5 5 5 5 5 0 0 0 0 0 0 0 0 0 0 25 1 0 2 6 82 2 60 12 11 26 28 3 63
5 5 0 0 0 0 5 5 5 5 3 1 0 0 0 0 2 5 0 1 0 0 0 0 2 1 63 8 81 5 5 86 67
5 5 5 4 0 0 0 0 2 5 5 5 0 0 5 5 2 4 2 3 5 5 3 5 2 5 12 44 21 25 96 3 15
5 5 5 3 0 0 2 5 2 2 5 5 5 4 5 13 5 5 9 4 5 19 5 5 4 21 17 8 9 100 2 3 78
5 5 5 5 1 2 5 19 5 5 5 42 5 5 5 30 7 5 80 32 5 5 11 6 8 88 10 6 80 7 0 4 5
31 11 5 5 5 2 5 12 36 6 5 35 5 10 27 21 33 60 96 34 5 5 5 5 5 5 5 4 5 1 1 3 0
93 46 39 22 21 15 5 33 56 39 5 33 78 31 100 100 100 100 72 80 63 87 5 5 0 5 5 5 11 4 4 1 4
100 98 44 34 40 58 51 59 76 19 15 41 100 56 71 76 100 100 36 49 83 5 5 4 5 17 30 5 5 5 5 5 38
100 84 76 92 96 80 64 66 75 48 18 89 100 100 100 84 100 100 46 5 46 5 5 24 40 35 5 5 5 5 35 93 100
100 71 98 100 100 100 100 68 100 66 51 85 100 100 78 100 100 12 95 100 100 5 84 100 100 33 5 8 7 100 100 100 100
58 76 100 100 100 100 100 97 95 100 100 100 100 89 69 100 100 100 96 100 100 20 100 100 100 95 21 41 63 90 60 74 78
96 100 100 100 100 100 100 100 100 100 100 100 100 100 100 78 58 100 100 100 44 87 100 100 85 64 23 56 33 27 56 53 52
95 65 100 100 100 100 100 100 100 100 100 100 100 100 70 78 85 100 100 98 97 100 100 49 5 5 5 68 5 5 80 61 100
34 88 100 100 100 100 100 100 100 100 100 100 100 100 95 82 100 100 100 100 100 91 16 6 5 5 32 11 29 5 17 96 100
100 100 100 100 100 100 100 100 100 100 100 100 100 100 94 100 100 100 100 100 100 96 5 1 19 19 30 5 7 76 100 98 100
100 100 100 100 100 100 100 100 100 100 100 100 100 100 100 100 100 100 100 100 35 5 5 5 3 0 5 35 100 100 60 98 100
100 100 100 100 100 100 100 100 100 100 100 100 100 100 100 100 100 100 100 100 18 6 5 1 1 0 16 33 4 4 5 97 100
100 100 100 100 100 100 100 100 100 100 100 100 100 100 100 100 100 100 100 98 5 5 0 1 2 5 0 5 5 4 0 29 48